     2.10           OBSERVATION DATA    G (GPS)             RINEX VERSION / TYPE
teqc 2002Mar14 Lou Estey 20020315 16:11:52UTC               PGM / RUN BY / DATE
Solaris 2.7|Ultra 2|cc SC5.0|=+-|*Sparc                     COMMENT
BIT 2 OF LLI FLAGS DATA COLLECTED UNDER A/S CONDITION       COMMENT
-Unknown-                                                   MARKER NAME
DOUG                                                        MARKER NUMBER
-Unknown- -Unknown-                                         OBSERVER / AGENCY
-Unknown- ASHTECH -Unknown-                                 REC # / TYPE / VERS
-Unknown- -Unknown-                                         ANT # / TYPE
 -2690727.1988 -4262935.2384  3894510.5739                  APPROX POSITION XYZ
        0.0000        0.0000        0.0000                  ANTENNA: DELTA H/E/N
     1     1                                                WAVELENGTH FACT L1/2
     7    L1    L2    C1    P2    P1    D1    D2            # / TYPES OF OBSERV
SNR is mapped to RINEX snr flag value [1-9]                 COMMENT
L1: 1 -> 1; 90 -> 5; 210 -> 9                               COMMENT
L2: 1 -> 1; 150 -> 5; 250 -> 9                              COMMENT
  1997     6    10     3     0   11.0000000     GPS         TIME OF FIRST OBS
                                                            END OF HEADER
 97  6 10  3  0 11.0000000  0  8G21G17G23G25G 3G31G 9G 1
   -838157.90148   -648525.24847  20975634.8264   20975640.1094   20975634.9994
       674.1884        525.3324
   2053327.90744   1590591.08143  25098293.2464   25098302.3414   25098292.6844
     -2048.9354      -1596.5714
    640684.00744    496868.56643  23360983.0604   23360992.4384   23360983.6074
      -662.0864       -515.9144
  -4938141.95748  -3825559.89047  24694564.8554   24694568.6604   24694564.7994
      4800.5574       3740.6864
   1027995.57044    797917.90543  22547635.5014   22547640.8314   22547634.7954
     -1187.2104       -925.1144
   -953870.98648   -737064.95747  22200690.0894   22200692.9064   22200689.2574
       586.0954        456.6974
     79168.62544     74767.03743  24560379.7024   24560376.9274   24560380.3744
      -323.7994       -252.3064
  -2127874.52348  -1479785.86347  20346742.4724   20346746.5054   20346742.1634
      1728.0594       1346.5334
 97  6 10  3  0 12.0000000  0  8G21G17G23G25G 3G31G 9G 1
   -838832.23448   -649050.70447  20975506.5334   20975511.8534   20975506.5814
       674.2634        525.3984
   2055376.66444   1592187.51643  25098683.0444   25098691.5774   25098681.9734
     -2048.7454      -1596.4274
    641345.87244    497384.30943  23361109.1014   23361118.6684   23361109.0484
      -661.8714       -515.7484
  -4942942.79248  -3829300.79547  24693651.4174   24693655.2124   24693651.4504
      4800.9044       3740.9574
   1029182.70244    798842.94443  22547861.3604   22547866.3004   22547861.7204
     -1187.2654       -925.1324
   -954457.07048   -737521.64847  22200578.5904   22200582.2854   22200577.6424
       585.8074        456.4814
     79492.36644     75019.29943  24560441.5344   24560438.2044   24560442.0494
      -323.9724       -252.4404
  -2129602.53848  -1481132.36747  20346413.6594   20346417.6374   20346413.3194
      1727.7764       1346.3224
 97  6 10  3  0 13.0000000  0  8G21G17G23G25G 3G31G 9G 1
   -839506.38648   -649576.01647  20975378.2394   20975383.7994   20975378.3004
       674.2874        525.4174
   2057425.50044   1593784.00743  25099072.9364   25099081.6064   25099071.4484
     -2048.6564      -1596.3514
    642007.74844    497900.06843  23361235.1084   23361244.9234   23361235.0324
      -661.6604       -515.5934
  -4947743.76648  -3833041.81047  24692737.9514   24692741.7534   24692737.2974
      4801.2694       3741.2464
   1030370.07644    799768.16343  22548087.2584   22548092.0724   22548088.0514
     -1187.2674       -925.1294
   -955042.61448   -737977.91447  22200467.2294   22200470.3314   22200465.5674
       585.4734        456.2044
     79816.57644     75271.92843  24560503.5104   24560500.3784   24560503.7244
      -324.1724       -252.6124
  -2131330.07748  -1482478.49947  20346084.9084   20346088.7744   20346084.6334
      1727.5194       1346.1144
 97  6 10  3  0 14.0000000  0  8G21G17G23G25G 3G31G 9G 1
   -840180.47048   -650101.27747  20975249.9364   20975255.4764   20975249.9474
       673.9154        525.1324
   2059474.26944   1595380.45043  25099462.8504   25099470.4734   25099461.9864
     -2048.9224      -1596.5604
    642669.54844    498415.76143  23361361.0304   23361371.5384   23361360.0454
      -661.9084       -515.7794
  -4952544.97848  -3836783.01247  24691824.4554   24691828.0994   24691823.5634
      4801.1904       3741.1874
   1031557.60544    800693.50543  22548313.2134   22548317.6104   22548314.2014
     -1187.7114       -925.4824
   -955627.71348   -738433.83447  22200355.9054   22200359.2464   22200354.4044
       584.7394        455.6274
     80141.18444     75524.86543  24560565.4374   24560563.1794   24560565.3804
      -324.9334       -253.1894
  -2133057.22448  -1483824.33047  20345756.2514   20345760.2024   20345755.9204
      1726.8454       1345.5984
 97  6 10  3  0 15.0000000  0  8G21G17G23G25G 3G31G 9G 1
   -840854.53048   -650626.51947  20975121.6734   20975127.2244   20975121.7754
       673.7314        524.9864
   2061522.93944   1596976.81643  25099852.7274   25099859.7534   25099851.8224
     -2048.9524      -1596.5874
    643331.20544    498931.33943  23361486.8454   23361497.7394   23361485.1804
      -661.9304       -515.7904
  -4957346.49548  -3840524.45147  24690910.9124   24690914.6074   24690910.0184
      4801.3344       3741.2974
   1032745.22844    801618.92543  22548539.1844   22548544.0154   22548540.0434
     -1188.0064       -925.7204
   -956212.41448   -738889.45647  22200244.6424   22200247.4754   22200242.9824
       584.1604        455.2084
     80465.99944     75777.96643  24560627.0534   24560624.4774   24560627.3074
      -325.2404       -253.4254
  -2134784.03848  -1485169.90047  20345427.6704   20345431.5314   20345427.4044
      1726.3374       1345.1994
 97  6 10  3  0 16.0000000  0  8G21G17G23G25G 3G31G 9G 1
   -841528.28048   -651151.51747  20974993.5274   20974998.9204   20974993.4294
       673.3814        524.7134
   2063571.78844   1598573.32243  25100242.6374   25100249.8124   25100242.7034
     -2049.1464      -1596.7334
    643993.01344    499447.03843  23361612.6614   23361623.8474   23361610.7074
      -662.0874       -515.9134
  -4962148.01048  -3844265.89247  24689997.3374   24690001.3004   24689996.6964
      4801.2744       3741.2544
   1033933.23644    802544.65043  22548765.2274   22548770.4004   22548765.8694
     -1188.3984       -926.0364
   -956796.43648   -739344.53447  22200133.5314   22200136.4044   22200131.7004
       583.3844        454.5904
     80791.46844     76031.57743  24560688.2324   24560687.0924   24560689.1164
      -325.9904       -254.0134
  -2136510.23948  -1486514.99147  20345099.1984   20345102.9694   20345098.9664
      1725.6824       1344.6864
 97  6 10  3  0 17.0000000  0  8G21G17G23G25G 3G31G 9G 1
   -842201.36648   -651675.99847  20974865.4994   20974871.1364   20974865.2244
       672.6694        524.1574
   2065621.17944   1600170.24543  25100632.6814   25100640.3504   25100632.4734
     -2049.7084      -1597.1654
    644655.33244    499963.12943  23361738.5834   23361750.2894   23361737.1444
      -662.6404       -516.3314
  -4966949.18648  -3848007.06147  24689083.7724   24689087.3564   24689083.3804
      4800.9374       3740.9834
   1035121.99044    803470.95043  22548991.4464   22548996.9124   22548991.6314
     -1189.1774       -926.6264
   -957379.42048   -739798.80347  22200022.5944   22200026.0524   22200021.0264
       582.3364        453.7644
     81117.88144     76285.92643  24560749.1494   24560747.4904   24560750.8994
      -326.8664       -254.7054
  -2138235.45148  -1487859.30847  20344770.8914   20344774.8404   20344770.4074
      1724.6404       1343.8734
 97  6 10  3  0 18.0000000  0  8G21G17G23G25G 3G31G 9G 1
   -842873.90748   -652200.05747  20974737.5754   20974742.9484   20974737.2114
       672.1664        523.7664
   2067671.00344   1601767.50843  25101022.8684   25101030.8244   25101022.3274
     -2050.1344      -1597.5024
    645318.03744    500479.51743  23361864.7294   23361876.2644   23361863.7144
      -662.9964       -516.6144
  -4971750.12648  -3851748.04947  24688170.2294   24688173.6214   24688168.8314
      4800.7194       3740.8204
   1036311.37544    804397.74743  22549217.7314   22549223.0664   22549218.1034
     -1189.8114       -927.1354
   -957961.47248   -740252.35747  22199911.8694   22199915.5844   22199910.8514
       581.4624        453.1084
     81445.10344     76540.90143  24560810.6044   24560810.2664   24560813.2374
      -327.8424       -255.4554
  -2139959.80148  -1489202.96047  20344442.7684   20344446.6374   20344442.2664
      1723.8144       1343.2294
 97  6 10  3  0 19.0000000  0  8G21G17G23G25G 3G31G 9G 1
   -843545.80748   -652723.61347  20974609.7384   20974615.0124   20974609.5284
       671.5954        523.3194
   2069721.30844   1603365.14943  25101412.9414   25101420.2684   25101412.1494
     -2050.5754      -1597.8584
    645981.23244    500996.28743  23361990.9834   23362002.0064   23361990.2004
      -663.4344       -516.9544
  -4976550.75448  -3855488.79047  24687256.6954   24687259.9164   24687255.3034
      4800.4414       3740.5934
   1037501.46744    805325.09343  22549444.1354   22549449.2144   22549445.0714
     -1190.4314       -927.6124
   -958542.50848   -740705.10947  22199801.3144   22199804.5124   22199799.3954
       580.4924        452.3194
     81773.30044     76796.63943  24560872.6984   24560873.9884   24560874.9064
      -328.7084       -256.1324
  -2141683.19648  -1490545.86347  20344114.8094   20344118.7034   20344114.4004
      1722.9094       1342.5264
 97  6 10  3  0 20.0000000  0  8G21G17G23G25G 3G31G 9G 1
   -844217.35548   -653246.90047  20974481.9614   20974487.1764   20974481.8464
       671.5734        523.3094
   2071771.86844   1604962.98943  25101803.0864   25101809.8044   25101802.8834
     -2050.4134      -1597.7254
    646644.62244    501513.21143  23362117.2294   23362128.0094   23362116.5474
      -663.2864       -516.8574
  -4981351.34148  -3859229.50647  24686343.1844   24686347.0954   24686341.6954
      4800.8124       3740.8974
   1038692.00044    806252.77843  22549670.6514   22549675.8714   22549671.7134
     -1190.5344       -927.6824
   -959122.81948   -741157.30547  22199690.8894   22199694.6504   22199689.3104
       580.1054        452.0454
     82102.10744     77052.85243  24560934.6674   24560938.3494   24560936.9374
      -328.9424       -256.3184
  -2143405.91948  -1491888.24547  20343786.9724   20343791.0064   20343786.6914
      1722.6014       1342.2904
 97  6 10  3  0 21.0000000  0  8G21G17G23G25G 3G31G 9G 1
   -844888.86248   -653770.15347  20974354.1944   20974359.6044   20974353.9434
       671.4444        523.2094
   2073822.32244   1606560.74143  25102193.2004   25102199.1704   25102193.1724
     -2050.4854      -1597.7804
    647307.89244    502030.04643  23362243.3684   23362253.4984   23362243.0404
      -663.2154       -516.7924
  -4986152.19548  -3862970.42447  24685429.5334   24685432.8534   24685428.3054
      4800.9614       3740.9994
   1039882.66444    807180.56843  22549897.1544   22549902.7994   22549898.4224
     -1190.7804       -927.8904
   -959702.71248   -741609.16447  22199580.5264   22199584.0514   22199579.2064
       579.6454        451.6554
     82431.25644     77309.32943  24560996.6454   24561001.4924   24560999.6954
      -329.3924       -256.6694
  -2145128.29048  -1493230.35447  20343459.2114   20343463.1364   20343459.0064
      1722.1484       1341.9394
 97  6 10  3  0 22.0000000  0  8G21G17G23G25G 3G31G 9G 1
   -845560.42848   -654293.45247  20974226.4284   20974231.6654   20974226.2904
       671.8784        523.5444
   2075872.56544   1608158.33343  25102583.2384   25102589.0324   25102583.3254
     -2049.8734      -1597.3034
    647970.94644    502546.70743  23362369.4294   23362379.2884   23362368.9944
      -662.6404       -516.3424
  -4990953.42048  -3866711.63447  24684515.7674   24684519.6134   24684514.3464
      4801.7234       3741.5954
   1041073.34944    808108.37043  22550123.7164   22550129.5464   22550125.0954
     -1190.4394       -927.6084
   -960282.32948   -742060.81847  22199470.1974   22199473.3464   22199469.1814
       579.6954        451.7164
     82760.57144     77565.94043  24561058.9834   24561063.6834   24561060.3044
      -329.1224       -256.4614
  -2146850.39848  -1494572.25747  20343131.4864   20343135.3244   20343131.0894
      1722.2704       1342.0254
 97  6 10  3  0 23.0000000  0  8G21G17G23G25G 3G31G 9G 1
   -846232.18748   -654816.90047  20974098.5744   20974103.8634   20974098.2194
       671.5514        523.2804
   2077922.51544   1609755.69843  25102973.1574   25102979.5974   25102973.1824
     -2050.0704      -1597.4684
    648633.63144    503063.08343  23362495.3844   23362505.3524   23362495.3934
      -662.8044       -516.4704
  -4995755.13148  -3870453.22247  24683601.9444   24683605.7964   24683600.5344
      4801.6484       3741.5354
   1042263.92744    809036.09243  22550350.3114   22550356.0554   22550351.1884
     -1190.7904       -927.8894
   -960861.75048   -742512.31747  22199359.9404   22199362.7924   22199359.2294
       579.0044        451.1634
     83090.03344     77822.66243  24561121.7454   24561126.8334   24561122.4584
      -329.8014       -256.9844
  -2148572.36848  -1495914.05347  20342803.7694   20342807.6924   20342803.4824
      1721.6104       1341.5094
 97  6 10  3  0 24.0000000  0  8G21G17G23G25G 3G31G 9G 1
   -846903.75448   -655340.19847  20973970.7824   20973976.1784   20973970.3354
       671.5284        523.2654
   2079972.52644   1611353.10543  25103363.2524   25103369.8774   25103363.8514
     -2049.9944      -1597.3924
    649296.35544    503579.49443  23362621.4074   23362630.9754   23362620.6884
      -662.7304       -516.4174
  -5000556.95448  -3874194.89947  24682688.0964   24682691.7074   24682686.2214
      4801.9024       3741.7374
   1043454.80344    809964.04443  22550576.9534   22550582.1454   22550577.3534
     -1190.9644       -928.0264
   -961440.62648   -742963.38947  22199249.7524   22199253.0404   22199248.4024
       578.5644        450.8364
     83419.95244     78079.74243  24561184.7694   24561190.1214   24561184.5394
      -330.0644       -257.1974
  -2150293.82048  -1497255.44347  20342476.2074   20342480.1214   20342475.9264
      1721.2394       1341.2264
 97  6 10  3  0 25.0000000  0  8G21G17G23G25G 3G31G 9G 1
   -847575.22148   -655863.41747  20973843.0544   20973848.4384   20973842.7764
       670.9664        522.8264
   2082022.51044   1612950.49743  25103753.3304   25103760.2574   25103754.3194
     -2050.4204      -1597.7304
    649959.00944    504095.84743  23362747.3834   23362756.8674   23362746.4284
      -663.0784       -516.6774
  -5005358.96748  -3877936.72547  24681774.2114   24681777.8814   24681772.3514
      4801.6494       3741.5394
   1044645.87244    810892.14843  22550803.7534   22550808.9524   22550803.5654
     -1191.6324       -928.5414
   -962018.97948   -743414.05247  22199139.6494   22199143.5894   22199138.2324
       577.6224        450.0944
     83750.26844     78337.13943  24561247.9024   24561252.2774   24561247.5064
      -330.9454       -257.8854
  -2152014.82948  -1498596.48747  20342148.7204   20342152.6204   20342148.4634
      1720.3404       1340.5214
 97  6 10  3  0 26.0000000  0  8G21G17G23G25G 3G31G 9G 1
   -848246.33148   -656386.36147  20973715.3324   20973720.5804   20973714.9094
       671.0284        522.8794
   2084072.75644   1614548.08543  25104143.4114   25104150.7124   25104143.6554
     -2050.2504      -1597.5974
    650621.84644    504612.34243  23362873.4494   23362882.9484   23362872.4284
      -662.8424       -516.5014
  -5010160.94048  -3881678.52147  24680860.2854   24680864.2114   24680858.9604
      4802.0594       3741.8694
   1045837.41344    811820.62143  22551030.5684   22551035.5934   22551030.6624
     -1191.6444       -928.5504
   -962596.59048   -743864.13847  22199029.6414   22199033.2454   22199027.8134
       577.2884        449.8314
     84081.25644     78595.05343  24561311.4204   24561314.7654   24561309.9384
      -331.0734       -257.9844
  -2153735.14848  -1499936.99647  20341821.3934   20341825.1454   20341821.1524
      1720.0704       1340.3174
 97  6 10  3  0 27.0000000  0  8G21G17G23G25G 3G31G 9G 1
   -848917.46048   -656909.31847  20973587.6014   20973592.8934   20973587.2954
       671.1074        522.9404
   2086122.85244   1616145.56043  25104533.5134   25104541.2644   25104533.6224
     -2050.0794      -1597.4674
    651284.53544    505128.72443  23362999.4294   23363009.3034   23362998.7174
      -662.6674       -516.3644
  -5014963.21648  -3885420.54847  24679946.3534   24679950.2274   24679945.7254
      4802.3944       3742.1204
   1047029.03044    812749.15643  22551257.3624   22551262.1954   22551258.2074
     -1191.7024       -928.5994
   -963173.83148   -744313.93447  22198919.7294   22198923.2914   22198918.4544
       576.9824        449.5954
     84412.51944     78853.18243  24561374.9424   24561378.5114   24561371.8554
      -331.4634       -258.2774
  -2155455.15948  -1501277.26347  20341494.1284   20341497.8634   20341493.8564
      1719.8204       1340.1214
 97  6 10  3  0 28.0000000  0  8G21G17G23G25G 3G31G 9G 1
   -849587.92648   -657431.75847  20973460.0134   20973465.3924   20973459.4984
       670.2164        522.2514
   2088173.50144   1617743.46543  25104923.7274   25104931.6744   25104923.5034
     -2050.8024      -1598.0234
    651947.69344    505645.47143  23363125.5254   23363135.9524   23363125.2754
      -663.3604       -516.8984
  -5019765.12548  -3889162.29047  24679032.4984   24679036.3174   24679031.8364
      4801.8074       3741.6674
   1048221.41344    813678.28343  22551484.4004   22551489.3024   22551484.8744
     -1192.7084       -929.3764
   -963750.02648   -744762.91947  22198810.0124   22198813.5014   22198808.3924
       575.7054        448.6084
     84744.71544     79112.03743  24561438.4554   24561441.5624   24561435.1814
      -332.6224       -259.1874
  -2157174.16848  -1502616.75247  20341167.0344   20341170.8064   20341166.6784
      1718.5854       1339.1624
 97  6 10  3  0 29.0000000  0  8G21G17G23G25G 3G31G 9G 1
   -850257.74848   -657953.69847  20973332.5794   20973337.8634   20973332.0754
       669.3814        521.6004
   2090224.70044   1619341.79543  25105314.0204   25105321.5494   25105313.6894
     -2051.5134      -1598.5764
    652611.34944    506162.60643  23363251.8674   23363262.6014   23363251.7664
      -663.9664       -517.3744
  -5024566.68248  -3892903.75847  24678118.6744   24678122.7014   24678118.3594
      4801.2474       3741.2354
   1049414.55544    814608.00343  22551711.5134   22551716.8304   22551712.2664
     -1193.6354       -930.1034
   -964325.18648   -745211.09747  22198700.4724   22198703.9764   22198699.3014
       574.4714        447.6374
     85077.84444     79371.62343  24561502.2534   24561504.6864   24561499.0454
      -333.7414       -260.0644
  -2158892.18548  -1503955.46447  20340840.1034   20340843.8754   20340839.7864
      1717.4244       1338.2504
 97  6 10  3  0 30.0000000  0  8G21G17G23G25G 3G31G 9G 1
   -850926.92848   -658475.13747  20973205.2054   20973210.2654   20973204.8744
       668.9204        521.2404
   2092276.42944   1620940.54243  25105704.4294   25105711.7734   25105704.0074
     -2051.9704      -1598.9354
    653275.48344    506680.11543  23363378.3614   23363389.0144   23363378.6894
      -664.2984       -517.6404
  -5029367.90048  -3896644.96547  24677204.8474   24677209.2834   24677204.1424
      4801.1594       3741.1564
   1050608.44644    815538.30643  22551938.8064   22551943.7464   22551938.9584
     -1194.2164       -930.5504
   -964899.33848   -745658.48947  22198591.0384   22198594.8414   22198590.0554
       573.6444        446.9994
     85411.82644     79631.87343  24561565.8714   24561566.7074   24561562.8874
      -334.1984       -260.4224
  -2160609.22648  -1505293.41747  20340513.3714   20340517.1684   20340512.9924
      1716.6284       1337.6314
 97  6 10  3  0 31.0000000  0  8G21G17G23G25G 3G31G 9G 1
   -851595.90748   -658996.42047  20973077.8444   20973083.2684   20973077.6194
       668.9704        521.2764
   2094328.26044   1622539.37143  25106094.7954   25106102.2894   25106094.1264
     -2051.8024      -1598.8024
    653939.64544    507197.64143  23363504.8664   23363515.0854   23363504.8734
      -664.0724       -517.4474
  -5034169.16048  -3900386.20047  24676291.0544   24676295.6594   24676290.8124
      4801.4484       3741.3874
   1051802.65544    816468.85543  22552166.0324   22552171.2474   22552166.0784
     -1194.2734       -930.5884
   -965472.87048   -746105.39947  22198481.7864   22198486.2654   22198481.2334
       573.2934        446.7334
     85746.41144     79892.59043  24561629.3474   24561630.2824   24561626.1374
      -334.7574       -260.8524
  -2162325.72948  -1506630.95447  20340186.7264   20340190.3914   20340186.2204
      1716.3344       1337.4104
 97  6 10  3  0 32.0000000  0  8G21G17G23G25G 3G31G 9G 1
   -852265.19448   -659517.94247  20972950.4284   20972955.9304   20972950.1684
       669.6674        521.8214
   2096379.71044   1624137.90143  25106485.1244   25106492.5264   25106484.8714
     -2051.0474      -1598.2094
    654603.35844    507714.82543  23363631.2884   23363641.1554   23363630.6444
      -663.2614       -516.8324
  -5038971.01148  -3904127.89847  24675377.0914   24675382.5624   24675377.0264
      4802.3424       3742.0854
   1052996.67944    817399.26643  22552393.2514   22552398.3004   22552393.1584
     -1193.7484       -930.2134
   -966046.31748   -746552.24347  22198372.5494   22198376.1044   22198372.0674
       573.5294        446.9024
     86080.90344     80153.23843  24561692.8664   24561692.2714   24561690.4054
      -334.3134       -260.5124
  -2164042.19148  -1507968.45847  20339860.0714   20339863.7484   20339859.7494
      1716.6654       1337.6634
 97  6 10  3  0 33.0000000  0  8G21G17G23G25G 3G31G 9G 1
   -852934.73448   -660039.66347  20972822.9934   20972828.4044   20972822.7824
       669.7594        521.8894
   2098430.80644   1625736.15643  25106875.3624   25106882.6894   25106874.4294
     -2050.7524      -1597.9944
    655266.65644    508231.68443  23363757.3214   23363767.2674   23363757.0434
      -663.0184       -516.6364
  -5043773.37548  -3907869.99747  24674463.1304   24674468.7644   24674462.8954
      4802.7894       3742.4244
   1054190.58444    818329.58143  22552620.3874   22552625.4754   22552620.7614
     -1193.7244       -930.1774
   -966619.62648   -746998.97747  22198263.3844   22198267.4634   22198262.9344
       573.3494        446.7554
     86415.50944     80413.97243  24561756.3804   24561754.8124   24561754.9324
      -334.5054       -260.6604
  -2165758.56548  -1509305.89247  20339533.4554   20339537.4184   20339533.2384
      1716.4514       1337.4974
 97  6 10  3  0 34.0000000  0  8G21G17G23G25G 3G31G 9G 1
   -853604.28848   -660561.39247  20972695.5924   20972701.0134   20972695.2434
       669.3864        521.5984
   2100481.78644   1627334.31943  25107265.5464   25107273.0864   25107265.2924
     -2051.1394      -1598.2854
    655929.77544    508748.39943  23363883.0934   23363893.0464   23363882.4724
      -663.2294       -516.8014
  -5048576.00548  -3911612.30647  24673549.1534   24673554.4964   24673549.4654
      4802.5814       3742.2744
   1055384.58744    819259.97143  22552847.5894   22552853.1404   22552847.6694
     -1194.2464       -930.5724
   -967192.53748   -747445.40047  22198154.2994   22198158.0464   22198153.5324
       572.4944        446.1064
     86750.38844     80674.92143  24561819.7944   24561819.3124   24561819.2244
      -335.1834       -261.1894
  -2167474.62048  -1510643.07647  20339206.8974   20339210.8564   20339206.4864
      1715.7044       1336.9124
 97  6 10  3  0 35.0000000  0  8G21G17G23G25G 3G31G 9G 1
   -854273.83048   -661083.11247  20972568.1484   20972573.5114   20972567.8524
       669.3204        521.5484
   2102532.68644   1628932.41843  25107655.8124   25107663.2764   25107655.3834
     -2051.0544      -1598.2234
    656592.73244    509264.99343  23364008.8754   23364019.0194   23364008.9914
      -663.0604       -516.6774
  -5053378.90548  -3915354.82447  24672635.0584   24672640.6544   24672635.4034
      4802.7754       3742.4224
   1056578.72344    820190.46843  22553074.8474   22553079.6564   22553074.7904
     -1194.4464       -930.7394
   -967765.05948   -747891.51947  22198045.2584   22198049.4854   22198044.5754
       572.0454        445.7474
     87085.47544     80936.03543  24561883.3154   24561883.0454   24561884.1864
      -335.5684       -261.4904
  -2169190.32648  -1511979.99047  20338880.4244   20338884.3244   20338880.0704
      1715.3054       1336.6074
 97  6 10  3  0 36.0000000  0  8G21G17G23G25G 3G31G 9G 1
   -854942.95348   -661604.50647  20972440.7844   20972446.3224   20972440.4414
       669.0734        521.3544
   2104583.92244   1630530.78343  25108046.1134   25108053.5384   25108045.9834
     -2051.2074      -1598.3444
    657255.95244    509781.79243  23364134.7994   23364144.6844   23364135.1674
      -663.1504       -516.7464
  -5058181.63748  -3919097.21147  24671721.0154   24671726.5844   24671721.5954
      4802.8824       3742.5034
   1057773.39344    821121.38043  22553302.2074   22553307.2534   22553302.3464
     -1194.7874       -931.0014
   -968336.75248   -748336.99847  22197936.3824   22197940.7194   22197935.4834
       571.3954        445.2304
     87421.39944     81197.80143  24561947.3934   24561947.6824   24561948.1454
      -335.9224       -261.7624
  -2170905.26748  -1513316.30747  20338554.1074   20338557.8884   20338553.7474
      1714.7594       1336.1774
 97  6 10  3  0 37.0000000  0  8G21G17G23G25G 3G31G 9G 1
   -855611.89648   -662125.76047  20972313.4624   20972318.9594   20972313.2254
       669.2014        521.4514
   2106635.24444   1632129.21543  25108436.4114   25108443.2534   25108436.0944
     -2050.9954      -1598.1844
    657919.18944    510298.60143  23364260.8004   23364270.5564   23364261.6264
      -662.8994       -516.5404
  -5062984.44048  -3922839.65747  24670806.9164   24670812.8704   24670806.8514
      4803.2024       3742.7554
   1058968.37044    822052.52943  22553529.6354   22553534.5114   22553530.4934
     -1194.7724       -930.9994
   -968907.86448   -748782.01947  22197827.5734   22197832.3444   22197827.5434
       571.1054        445.0124
     87757.82044     81459.95143  24562011.5424   24562012.1844   24562012.0534
      -336.3644       -262.1054
  -2172619.68548  -1514652.21847  20338227.8774   20338231.5634   20338227.5594
      1714.5174       1335.9824
 97  6 10  3  0 38.0000000  0  8G21G17G23G25G 3G31G 9G 1
   -856280.63648   -662646.85847  20972186.1944   20972191.8394   20972186.0164
       668.6264        521.0114
   2108686.67344   1633727.72943  25108826.8564   25108833.8834   25108826.9004
     -2051.4644      -1598.5384
    658582.44244    510815.42043  23364387.0344   23364396.5384   23364387.8304
      -663.2724       -516.8384
  -5067787.35248  -3926582.18747  24669892.8354   24669898.6254   24669892.9244
      4802.8824       3742.4984
   1060163.67544    822983.93443  22553757.0684   22553761.8084   22553758.0374
     -1195.5194       -931.5684
   -969478.38448   -749226.57947  22197718.8414   22197723.3844   22197718.3014
       570.1124        444.2484
     88094.66644     81722.43443  24562075.8464   24562074.7664   24562076.3914
      -337.1074       -262.6844
  -2174333.57448  -1515987.71647  20337901.7374   20337905.6714   20337901.3104
      1713.5914       1335.2694
 97  6 10  3  0 39.0000000  0  8G21G17G23G25G 3G31G 9G 1
   -856948.91948   -663167.59747  20972058.9854   20972064.6244   20972058.8474
       667.7174        520.2994
   2110738.49144   1635326.54643  25109217.4164   25109224.1454   25109217.1784
     -2052.2914      -1599.1814
    659246.03344    511332.50543  23364513.2174   23364522.7494   23364513.8294
      -664.0704       -517.4634
  -5072590.03548  -3930324.54147  24668978.7844   24668984.5344   24668979.1534
      4802.2804       3742.0394
   1061359.55944    823915.78943  22553984.6124   22553989.1024   22553985.3554
     -1196.4944       -932.3224
   -970048.05448   -749670.47747  22197610.3134   22197615.1374   22197609.6314
       568.8724        443.2804
     88432.34844     81985.56743  24562140.6494   24562139.1684   24562140.7124
      -338.4104       -263.6944
  -2176046.66448  -1517322.58947  20337575.7374   20337579.4544   20337575.3094
      1712.3564       1334.3004
 97  6 10  3  0 40.0000000  0  8G21G17G23G25G 3G31G 9G 1
   -857616.65248   -663687.90747  20971931.8424   20971937.6074   20971931.7574
       667.3964        520.0514
   2112790.77644   1636925.72643  25109608.0024   25109614.8944   25109607.8574
     -2052.6124      -1599.4354
    659910.01944    511849.89843  23364639.5174   23364649.4244   23364639.7344
      -664.2424       -517.5964
  -5077392.38748  -3934066.63047  24668064.8394   24668070.8984   24668065.4074
      4802.1484       3741.9324
   1062556.15344    824848.19743  22554212.3784   22554217.3584   22554212.4734
     -1197.0004       -932.7314
   -970616.73648   -750113.60347  22197501.9534   22197506.9154   22197502.1654
       568.1034        442.6774
     88770.87444     82249.36043  24562205.6684   24562202.9604   24562205.6564
      -339.0194       -264.1754
  -2177758.86148  -1518656.76447  20337249.9314   20337253.5854   20337249.6044
      1711.6974       1333.7894
 97  6 10  3  0 41.0000000  0  8G21G17G23G25G 3G31G 9G 1
   -858283.67748   -664207.66947  20971804.9024   20971810.6644   20971804.9534
       666.7704        519.5594
   2114843.69444   1638525.40543  25109998.6644   25110006.6914   25109998.7854
     -2053.2444      -1599.9314
    660574.56344    512367.73143  23364765.9724   23364776.0214   23364766.5904
      -664.7264       -517.9684
  -5082194.27848  -3937808.35547  24667151.0054   24667156.8824   24667151.7214
      4801.7024       3741.5814
   1063753.58244    825781.25743  22554440.3264   22554445.3054   22554440.4754
     -1197.7924       -933.3414
   -971184.31248   -750555.86947  22197393.7984   22197399.1524   22197394.1954
       567.0234        441.8264
     89110.45844     82513.97743  24562271.0114   24562267.2904   24562271.0064
      -340.0364       -264.9734
  -2179470.00148  -1519990.12247  20336924.2774   20336928.2044   20336923.8524
      1710.6974       1333.0144
 97  6 10  3  0 42.0000000  0  8G21G17G23G25G 3G31G 9G 1
   -858950.63248   -664727.37547  20971678.0074   20971683.8734   20971678.2724
       667.4194        520.0684
   2116896.59744   1640125.07043  25110389.4234   25110397.0774   25110389.4104
     -2052.4014      -1599.2714
    661239.04444    512885.50643  23364892.3734   23364903.6514   23364893.0404
      -663.9494       -517.3614
  -5086996.33048  -3941550.21147  24666237.0984   24666242.8354   24666238.2014
      4802.6674       3742.3324
   1064951.23144    826714.49343  22554668.2144   22554673.3324   22554668.1954
     -1197.2174       -932.9034
   -971751.39148   -750997.74947  22197285.7994   22197291.3344   22197285.8164
       567.3584        442.1004
     89450.40844     82778.88043  24562336.3984   24562332.5424   24562335.3904
      -339.5804       -264.6174
  -2181180.72248  -1521323.15247  20336598.7264   20336602.7774   20336598.5354
      1711.0344       1333.2794
 97  6 10  3  0 43.0000000  0  8G21G17G23G25G 3G31G 9G 1
   -859617.79148   -665247.23747  20971551.0944   20971556.6864   20971551.2534
       666.8954        519.6504
   2118949.24844   1641724.53943  25110780.2214   25110787.7284   25110779.8674
     -2052.8174      -1599.6004
    661903.17944    513403.01543  23365018.7234   23365030.5814   23365019.1954
      -664.3464       -517.6834
  -5091798.80748  -3945292.39847  24665323.0994   24665328.6904   24665324.3304
      4802.3404       3742.0904
   1066148.84644    827647.70243  22554896.1444   22554900.9424   22554896.3024
     -1197.9094       -933.4374
   -972318.24148   -751439.46147  22197177.8694   22197183.0444   22197178.3814
       566.3164        441.2954
     89790.49144     83043.88443  24562401.9054   24562397.0364   24562400.2204
      -340.4964       -265.3254
  -2182891.28148  -1522656.05647  20336273.2044   20336277.2104   20336273.0544
      1710.1384       1332.5744
 97  6 10  3  0 44.0000000  0  8G21G17G23G25G 3G31G 9G 1
   -860285.10548   -665767.22647  20971424.1654   20971430.0204   20971424.2694
       667.3784        520.0364
   2121001.67744   1643323.83243  25111171.0634   25111177.9724   25111169.5394
     -2052.2974      -1599.1874
    662567.00344    513920.28343  23365144.9884   23365157.2184   23365145.5964
      -663.6994       -517.1704
  -5096601.68948  -3949034.90547  24664409.0214   24664415.1424   24664409.6044
      4803.0804       3742.6664
   1067346.43944    828580.88943  22555124.1014   22555128.8124   22555124.4454
     -1197.6134       -933.2014
   -972884.83848   -751880.96547  22197069.9914   22197075.2164   22197069.9804
       566.4114        441.3534
     90130.72244     83309.00443  24562467.4274   24562460.6344   24562464.8474
      -340.3274       -265.1994
  -2184601.67048  -1523988.82747  20335947.7204   20335951.6334   20335947.5934
      1710.2714       1332.6844
 97  6 10  3  0 45.0000000  0  8G21G17G23G25G 3G31G 9G 1
   -860952.74348   -666287.46347  20971297.1724   20971302.6754   20971297.3404
       667.9084        520.4504
   2123053.70144   1644922.81243  25111561.6904   25111567.7724   25111561.1204
     -2051.6694      -1598.6964
    663230.37644    514437.19343  23365271.2184   23365283.7654   23365271.4684
      -663.0424       -516.6474
  -5101405.12248  -3952777.83747  24663494.9254   24663500.9414   24663495.8874
      4803.9044       3743.2974
   1068543.85444    829513.94843  22555351.9784   22555356.7794   22555351.9984
     -1197.2014       -932.9004
   -973451.33548   -752322.39147  22196962.0924   22196967.6944   22196962.7774
       566.5534        441.4774
     90470.96244     83574.12343  24562532.6764   24562525.6554   24562528.8544
      -340.1494       -265.0474
  -2186312.02548  -1525321.57147  20335622.2404   20335626.1184   20335622.0774
      1710.4564       1332.8274
 97  6 10  3  0 46.0000000  0  8G21G17G23G25G 3G31G 9G 1
   -861620.22548   -666807.57847  20971170.2184   20971175.6144   20971170.2084
       667.3774        520.0284
   2125105.82244   1646521.86943  25111952.2154   25111957.8584   25111951.7034
     -2052.2144      -1599.1374
    663893.75744    514954.11543  23365397.5354   23365409.7194   23365397.9714
      -663.4484       -516.9704
  -5106208.59748  -3956520.80147  24662580.7834   24662587.1694   24662581.9374
      4803.5154       3742.9894
   1069741.57944    830447.23943  22555579.8844   22555584.8104   22555580.3084
     -1197.9064       -933.4484
   -974017.24048   -752763.35147  22196854.4284   22196859.8644   22196854.9224
       565.5534        440.6984
     90811.69144     83839.62943  24562597.8054   24562590.3164   24562594.5064
      -340.9364       -265.6584
  -2188021.87548  -1526653.92147  20335296.8794   20335300.8054   20335296.6694
      1709.5684       1332.1274
 97  6 10  3  0 47.0000000  0  8G21G17G23G25G 3G31G 9G 1
   -862287.55848   -667327.57847  20971043.3004   20971048.7034   20971043.3274
       667.1874        519.8824
   2127158.02144   1648120.98843  25112342.6154   25112348.2434   25112342.3674
     -2052.3024      -1599.1994
    664557.17144    515471.05743  23365523.7504   23365535.8774   23365524.1864
      -663.5004       -517.0134
  -5111012.18548  -3960263.85547  24661666.6344   24661673.4534   24661667.7414
      4803.5224       3742.9944
   1070939.60044    831380.76143  22555807.8644   22555812.4144   22555807.9624
     -1198.2854       -933.7344
   -974582.59148   -753203.89047  22196746.9344   22196752.2544   22196747.5924
       564.9174        440.1944
     91152.84344     84105.46443  24562663.0484   24562655.9744   24562659.4394
      -341.4544       -266.0694
  -2189731.23548  -1527985.89047  20334971.6354   20334975.5834   20334971.4174
      1709.0274       1331.7094
 97  6 10  3  0 48.0000000  0  8G21G17G23G25G 3G31G 9G 1
   -862954.44648   -667847.22947  20970916.4474   20970921.8694   20970916.2354
       666.7854        519.5724
   2129210.59144   1649720.39643  25112732.9974   25112737.8784   25112734.1504
     -2052.5924      -1599.4234
    665220.87244    515988.22543  23365650.0594   23365661.9894   23365650.3294
      -663.7484       -517.2054
  -5115815.57748  -3964006.75247  24660752.5874   24660758.8444   24660754.2524
      4803.4074       3742.9154
   1072138.21844    832314.75043  22556035.9094   22556040.7724   22556036.1224
     -1198.7814       -934.1104
   -975147.07048   -753643.74747  22196639.5654   22196645.2224   22196640.4174
       564.1324        439.5834
     91494.79744     84371.92543  24562728.2404   24562721.0664   24562723.7694
      -342.3474       -266.7654
  -2191439.81048  -1529317.24747  20334646.5454   20334650.3384   20334646.2224
      1708.3124       1331.1534
 97  6 10  3  0 49.0000000  0  8G21G17G23G25G 3G31G 9G 1
   -863621.17048   -668366.75447  20970789.6244   20970794.9664   20970789.6414
       666.5444        519.3844
   2131263.25444   1651319.86943  25113123.2194   25113128.8964   25113125.0374
     -2052.7764      -1599.5534
    665884.59244    516505.41143  23365776.3184   23365787.9314   23365776.9014
      -663.8024       -517.2524
  -5120618.99848  -3967749.67147  24659838.5584   24659844.2454   24659840.4744
      4803.3794       3742.8794
   1073337.14844    833248.98143  22556264.0734   22556268.9414   22556263.7834
     -1199.1384       -934.3894
   -975710.93748   -754083.11847  22196532.3344   22196537.9574   22196532.7494
       563.4584        439.0594
     91837.11444     84638.67043  24562792.6644   24562788.9134   24562789.3564
      -342.7144       -267.0594
  -2193147.88548  -1530648.21547  20334321.5344   20334325.1824   20334321.1064
      1707.7534       1330.7154
 97  6 10  3  0 50.0000000  0  8G21G17G23G25G 3G31G 9G 1
   -864287.45048   -668885.93447  20970662.9084   20970668.1674   20970662.7594
       666.2204        519.1324
   2133316.27944   1652919.62943  25113513.5174   25113519.6554   25113516.8504
     -2053.0264      -1599.7654
    666548.61844    517022.83343  23365902.7364   23365914.5344   23365903.4224
      -664.0104       -517.4094
  -5125422.24348  -3971492.45647  24658924.6044   24658929.9414   24658926.0374
      4803.2384       3742.7774
   1074536.69144    834183.69243  22556492.3494   22556497.5134   22556492.0104
     -1199.7174       -934.8504
   -976273.96548   -754521.84847  22196425.3034   22196430.1684   22196425.5164
       562.6674        438.4404
     92180.28744     84906.08043  24562857.3184   24562854.5564   24562854.8594
      -343.3074       -267.5064
  -2194855.17148  -1531978.56547  20333996.6534   20334000.5374   20333996.2994
      1707.0674       1330.1774
 97  6 10  3  0 51.0000000  0  8G21G17G23G25G 3G31G 9G 1
   -864953.13248   -669404.64847  20970536.3084   20970541.6234   20970536.1494
       665.8334        518.8314
   2135369.82244   1654519.79443  25113903.9534   25113909.3124   25113906.1594
     -2053.3184      -1599.9884
    667213.09944    517540.60743  23366029.2554   23366040.9684   23366029.7514
      -664.2534       -517.5964
  -5130225.11048  -3975234.94747  24658010.6514   24658015.5974   24658012.5024
      4803.1454       3742.7114
   1075736.96044    835118.96043  22556720.7144   22556726.6374   22556720.1314
     -1200.1414       -935.1604
   -976835.97848   -754959.78347  22196318.4294   22196323.2484   22196317.9614
       561.9464        437.8774
     92524.27644     85174.12243  24562922.2534   24562922.2434   24562921.3944
      -344.1314       -268.1564
  -2196561.52248  -1533308.18947  20333671.9814   20333675.6994   20333671.7064
      1706.3484       1329.6244
 97  6 10  3  0 52.0000000  0  8G21G17G23G25G 3G31G 9G 1
   -865618.10048   -669922.80347  20970409.8474   20970415.0544   20970409.6524
       664.9264        518.1304
   2137424.01344   1656120.46643  25114294.6484   25114300.9154   25114295.8184
     -2054.2094      -1600.6694
    667878.14044    518058.82043  23366155.9774   23366166.9964   23366156.2784
      -664.9874       -518.1764
  -5135027.51148  -3978977.07247  24657096.8884   24657102.9454   24657098.0414
      4802.5164       3742.2084
   1076938.12144    836054.93143  22556949.3134   22556954.6404   22556948.8464
     -1201.2554       -936.0464
   -977396.83848   -755396.81847  22196211.7844   22196216.5254   22196212.1374
       560.5834        436.8264
     92869.42744     85443.07343  24562987.0644   24562988.3574   24562987.1224
      -345.4054       -269.1544
  -2198266.81448  -1534636.98847  20333347.5104   20333351.2804   20333347.1334
      1705.0954       1328.6534
 97  6 10  3  0 53.0000000  0  8G21G17G23G25G 3G31G 9G 1
   -866283.01148   -670440.91647  20970283.3854   20970288.4704   20970283.1854
       665.1474        518.3014
   2139478.18244   1657721.12243  25114685.4534   25114690.1294   25114686.4344
     -2053.8794      -1600.4284
    668543.08944    518576.95843  23366282.7294   23366293.5024   23366282.9454
      -664.6324       -517.8814
  -5139830.08348  -3982719.32947  24656183.0544   24656189.1204   24656184.4224
      4802.8864       3742.5024
   1078139.45244    836991.02743  22557177.8904   22557183.2774   22557177.4144
     -1201.1744       -935.9634
   -977957.23948   -755833.49347  22196105.1574   22196110.3524   22196105.3624
       560.3354        436.6224
     93214.81444     85712.20943  24563052.3554   24563054.8974   24563051.6784
      -345.2804       -269.0564
  -2199971.70648  -1535965.47547  20333023.1184   20333026.9214   20333022.8544
      1704.9634       1328.5534
 97  6 10  3  0 54.0000000  0  8G21G17G23G25G 3G31G 9G 1
   -866947.82948   -670958.95747  20970156.9754   20970161.7784   20970156.7104
       665.1354        518.2884
   2141532.33144   1659321.76143  25115076.4144   25115082.1874   25115076.9024
     -2053.7814      -1600.3454
    669207.96844    519095.05143  23366409.5264   23366419.7554   23366409.7854
      -664.4594       -517.7654
  -5144632.80948  -3986461.70647  24655269.2074   24655275.5914   24655270.5344
      4803.1994       3742.7404
   1079341.03444    837927.32543  22557406.5604   22557411.8094   22557406.5294
     -1201.3424       -936.1154
   -978517.14748   -756269.78347  22195998.5924   22196003.8644   22195998.8674
       560.0154        436.3704
     93560.67744     85981.71843  24563117.9734   24563119.4244   24563116.8424
      -345.7594       -269.4364
  -2201676.16748  -1537293.62647  20332698.7614   20332702.4864   20332698.2014
      1704.6254       1328.2764
 97  6 10  3  0 55.0000000  0  8G21G17G23G25G 3G31G 9G 1
   -867612.97548   -671477.25347  20970030.5234   20970035.4024   20970030.1584
       665.4644        518.5454
   2143586.10544   1660922.10043  25115467.2854   25115474.2244   25115466.3254
     -2053.3174      -1599.9774
    669872.36244    519612.75943  23366536.1714   23366545.8474   23366536.0764
      -664.0064       -517.4044
  -5149436.09048  -3990204.52547  24654355.2424   24654361.3534   24654356.2884
      4803.7074       3743.1534
   1080542.41644    838863.46943  22557635.2124   22557640.2594   22557634.8164
     -1201.1394       -935.9514
   -979076.94448   -756705.99147  22195892.0844   22195896.9824   22195892.2864
       559.8804        436.2844
     93906.50844     86251.20443  24563183.9724   24563184.3674   24563182.8524
      -345.7384       -269.4184
  -2203380.59948  -1538621.75647  20332374.3654   20332378.0684   20332373.7404
      1704.5534       1328.2244
 97  6 10  3  0 56.0000000  0  8G21G17G23G25G 3G31G 9G 1
   -868278.18148   -671995.59547  20969903.9814   20969908.6684   20969903.4054
       665.3484        518.4524
   2145639.68644   1662522.29043  25115858.1944   25115864.8284   25115859.0364
     -2053.4654      -1600.0964
    670536.52744    520130.29043  23366662.8794   23366671.7764   23366663.0524
      -663.9634       -517.3704
  -5154239.71048  -3993947.60747  24653441.1884   24653447.2514   24653442.5454
      4803.8704       3743.2694
   1081743.86544    839799.66043  22557863.8354   22557869.0724   22557863.4784
     -1201.4254       -936.1744
   -979636.42148   -757141.94947  22195785.6124   22195790.1654   22195785.9014
       559.3264        435.8554
     94252.63144     86520.91743  24563249.8544   24563250.4634   24563248.7004
      -346.1744       -269.7494
  -2205084.76848  -1539949.68147  20332049.9854   20332053.7014   20332049.6634
      1704.1054       1327.8704
 97  6 10  3  0 57.0000000  0  8G21G17G23G25G 3G31G 9G 1
   -868943.30248   -672513.87047  20969777.4534   20969782.2524   20969776.9764
       664.6994        517.9504
   2147693.28744   1664122.49943  25116249.0824   25116255.6784   25116250.1004
     -2053.9604      -1600.4894
    671200.62844    520647.77043  23366789.5394   23366797.6164   23366789.5114
      -664.4254       -517.7194
  -5159043.47848  -3997690.79947  24652527.0604   24652532.6474   24652528.5634
      4803.5484       3743.0234
   1082945.55644    840736.04143  22558092.5814   22558097.6964   22558092.3374
     -1202.1564       -936.7364
   -980195.39848   -757577.51747  22195679.2464   22195684.1704   22195679.0824
       558.3454        435.0924
     94599.13444     86790.92543  24563316.0284   24563315.7814   24563314.5234
      -347.0364       -270.4234
  -2206788.49648  -1541277.26347  20331725.7094   20331729.7314   20331725.6584
      1703.1554       1327.1384
 97  6 10  3  0 58.0000000  0  8G21G17G23G25G 3G31G 9G 1
   -869608.13448   -673031.92047  20969651.0114   20969655.6484   20969650.4494
       664.6894        517.9414
   2149747.09444   1665722.86643  25116640.1594   25116645.9404   25116639.1564
     -2053.8634      -1600.4074
    671864.86944    521165.36443  23366916.2304   23366923.8204   23366915.9004
      -664.2894       -517.6374
  -5163847.16748  -4001433.93047  24651613.0214   24651618.8924   24651614.3684
      4803.6964       3743.1314
   1084147.67544    841672.75943  22558321.4044   22558325.9414   22558320.9814
     -1202.3164       -936.8734
   -980753.66448   -758012.52947  22195573.0174   22195577.6324   22195572.9164
       557.8924        434.7204
     94946.24944     87061.41043  24563382.7154   24563381.5014   24563380.6934
      -347.4964       -270.7944
  -2208491.57348  -1542604.33347  20331401.5954   20331405.7164   20331401.2714
      1702.7604       1326.8224
 97  6 10  3  0 59.0000000  0  8G21G17G23G25G 3G31G 9G 1
   -870272.88648   -673549.90847  20969524.5734   20969529.2084   20969523.9304
       664.8484        518.0614
   2151800.89844   1667323.23443  25117031.1334   25117038.1764   25117029.6704
     -2053.7424      -1600.3244
    672529.02244    521682.88543  23367042.7494   23367050.5494   23367042.1324
      -663.9934       -517.3954
  -5168651.04448  -4005177.21047  24650698.9984   24650704.6444   24650699.7454
      4804.0654       3743.4234
   1085350.00644    842609.64243  22558550.3234   22558555.0424   22558550.1244
     -1202.3594       -936.9054
   -981311.46148   -758447.17947  22195466.8944   22195472.0744   22195467.0834
       557.6104        434.5064
     95293.81944     87332.24443  24563449.4914   24563447.4154   24563445.2114
      -347.7994       -271.0114
  -2210194.23048  -1543931.08147  20331077.5764   20331081.5674   20331077.2344
      1702.5474       1326.6624
 97  6 10  3  1  0.0000000  0  8G21G17G23G25G 3G31G 9G 1
   -870937.33648   -674067.65947  20969398.1804   20969402.4824   20969397.3334
       664.0324        517.4244
   2153854.91744   1668923.76143  25117421.9054   25117429.0114   25117420.8254
     -2054.4484      -1600.8544
    673193.32544    522200.52043  23367169.2074   23367177.1044   23367168.1104
      -664.6294       -517.8884
  -5173454.86648  -4008920.44047  24649784.9874   24649790.2674   24649785.5114
      4803.5804       3743.0394
   1086552.76744    843546.86143  22558779.3474   22558783.8234   22558778.8594
     -1203.2474       -937.5904
   -981868.55048   -758881.27547  22195360.9004   22195365.4704   22195361.4774
       556.4774        433.6224
     95641.95044     87603.51443  24563516.2164   24563515.0934   24563511.5214
      -348.7464       -271.7574
  -2211896.23348  -1545257.31647  20330753.7154   20330757.8544   20330753.5584
      1701.4064       1325.7664
 97  6 10  3  1  1.0000000  0  8G21G17G23G25G 3G31G 9G 1
   -871601.09848   -674584.87647  20969271.8834   20969276.3194   20969271.1904
       663.1824        516.7624
   2155909.55044   1670524.77743  25117812.6734   25117820.1144   25117810.0434
     -2055.1034      -1601.3774
    673858.18244    522718.58743  23367295.7034   23367304.3194   23367295.0304
      -665.3204       -518.4304
  -5178258.22148  -4012663.30947  24648871.0194   24648876.4594   24648871.3244
      4802.9644       3742.5634
   1087756.39044    844484.74943  22559008.5004   22559012.4154   22559007.4454
     -1204.2544       -938.3764
   -982424.53148   -759314.50847  22195255.1064   22195259.8964   22195255.8674
       555.2154        432.6234
     95991.05944     87875.55243  24563583.3424   24563581.4124   24563578.9204
      -349.6614       -272.4644
  -2213597.18348  -1546582.72947  20330430.0774   20330434.0434   20330430.0084
      1700.2224       1324.8424
 97  6 10  3  1  2.0000000  0  8G21G17G23G25G 3G31G 9G 1
   -872264.53148   -675101.84147  20969145.6484   20969150.1784   20969144.9674
       663.1574        516.7494
   2157964.44344   1672125.98843  25118203.4614   25118211.0794   25118200.1594
     -2055.1364      -1601.3994
    674523.19544    523236.77443  23367422.2804   23367431.0304   23367421.6274
      -665.2094       -518.3384
  -5183061.52648  -4016406.14047  24647957.0564   24647962.4224   24647958.2314
      4803.1494       3742.7184
   1088960.46744    845422.98843  22559237.7594   22559241.9424   22559236.4944
     -1204.4524       -938.5294
   -982979.79048   -759747.17747  22195149.4984   22195154.0774   22195149.8624
       554.7074        432.2484
     96340.86044     88148.12843  24563650.5604   24563649.2094   24563646.4644
      -350.0854       -272.7904
  -2215297.46148  -1547907.62347  20330106.5844   20330110.4374   20330106.2114
      1699.8094       1324.5304
 97  6 10  3  1  3.0000000  0  8G21G17G23G25G 3G31G 9G 1
   -872926.95548   -675618.01447  20969019.6354   20969024.0224   20969018.8394
       662.3274        516.1014
   2160020.25844   1673727.92043  25118594.4384   25118599.5964   25118591.1044
     -2055.8124      -1601.9424
    675189.05644    523755.62443  23367549.1264   23367557.9254   23367548.3974
      -665.8794       -518.8534
  -5187864.07348  -4020148.38047  24647043.1814   24647048.9974   24647044.0044
      4802.6234       3742.3114
   1090165.69144    846362.12643  22559467.1884   22559471.2524   22559466.3714
     -1205.3734       -939.2434
   -983533.65548   -760178.76447  22195044.2034   22195048.9784   22195045.0194
       553.5204        431.3264
     96691.93944     88421.70043  24563717.3564   24563716.9154   24563713.3774
      -351.2564       -273.7104
  -2216996.38648  -1549231.46047  20329783.3054   20329787.2614   20329783.0184
      1698.6554       1323.6354
 97  6 10  3  1  4.0000000  0  8G21G17G23G25G 3G31G 9G 1
   -873589.31248   -676134.13447  20968893.6254   20968897.8424   20968892.6304
       661.9704        515.8154
   2162076.06544   1675329.84243  25118985.5134   25118992.4974   25118984.0204
     -2056.1244      -1602.1664
    675854.84344    524274.41943  23367675.9024   23367684.5474   23367674.8494
      -666.1264       -519.0474
  -5192666.76548  -4023890.73547  24646129.3734   24646134.9874   24646129.7564
      4802.4834       3742.1904
   1091371.15344    847301.44643  22559696.6374   22559700.6104   22559695.8584
     -1205.9144       -939.6844
   -984087.03148   -760609.96547  22194939.0354   22194943.4014   22194939.3984
       552.7414        430.7054
     97043.45644     88695.61243  24563784.2334   24563783.4184   24563782.6774
      -352.0014       -274.2934
  -2218694.88048  -1550554.95947  20329460.1374   20329464.0744   20329459.6724
      1697.9364       1323.0614
 97  6 10  3  1  5.0000000  0  8G21G17G23G25G 3G31G 9G 1
   -874251.87548   -676650.41747  20968767.5254   20968771.7794   20968766.6294
       662.5724        516.2864
   2164131.62344   1676931.57343  25119376.4484   25119384.4694   25119374.9424
     -2055.5474      -1601.7244
    676520.26944    524792.93343  23367802.6694   23367810.6004   23367801.4704
      -665.3424       -518.4474
  -5197469.93048  -4027633.45947  24645215.4204   24645220.9184   24645215.5584
      4803.2274       3742.7824
   1092576.54744    848240.71343  22559926.1074   22559930.3934   22559925.2294
     -1205.4864       -939.3474
   -984640.21548   -761041.02447  22194833.8914   22194838.1024   22194833.9624
       552.9244        430.8544
     97395.00844     88969.55043  24563851.2534   24563848.5814
      -351.8304       -274.1744
  -2220393.22348  -1551878.34547  20329137.0274   20329140.8934   20329136.4354
      1698.1614       1323.2434
 97  6 10  3  1  6.0000000  0  8G21G17G23G25G 3G31G 9G 1
   -874914.43648   -677166.69747  20968641.4414   20968645.6764   20968640.7114
       662.4464        516.1884
   2166187.11944   1678533.25343  25119767.3594   25119776.0244   25119766.7624
     -2055.5894      -1601.7534
    677185.55444    525311.34043  23367929.4624   23367936.9374   23367928.6044
      -665.3244       -518.4404
  -5202273.32048  -4031376.35947  24644301.4414   24644307.0724   24644301.7624
      4803.4554       3742.9584
   1093782.08444    849180.09243  22560155.5074   22560159.8244   22560154.1814
     -1205.7364       -939.5404
   -985193.00948   -761471.77147  22194728.8384   22194733.0114   22194728.4614
       552.4664        430.4914
     97746.92844     89243.77343  24563917.9354   24563914.8254
      -352.2124       -274.4594
  -2222091.21348  -1553201.45347  20328813.9474   20328817.7454   20328813.3414
      1697.7014       1322.8844
 97  6 10  3  1  7.0000000  0  8G21G17G23G25G 3G31G 9G 1
   -875577.03748   -677683.01147  20968515.3404   20968519.8144   20968514.3744
       662.3894        516.1494
   2168242.47844   1680134.82743  25120158.3884   25120166.1704   25120157.8344
     -2055.5854      -1601.7494
    677850.64844    525829.59843  23368056.2974   23368063.2564   23368055.1604
      -665.2264       -518.3594
  -5207076.99248  -4035119.47747  24643387.4284   24643393.2454   24643387.3694
      4803.5654       3743.0374
   1094987.72844    850119.55243  22560384.8764   22560389.1994   22560383.5714
     -1205.9154       -939.6644
   -985745.46448   -761902.26047  22194623.8184   22194627.7744   22194623.3444
       552.0394        430.1614
     98099.09354     89518.18543  24563984.1844   24563982.2864
      -352.6144       -274.7534
  -2223788.90448  -1554524.32747  20328490.8984   20328494.5944   20328490.2164
      1697.2924       1322.5604
 97  6 10  3  1  8.0000000  0  8G21G17G23G25G 3G31G 9G 1
   -876239.64848   -678199.33147  20968389.1844   20968393.6774   20968388.2734
       662.4644        516.2004
   2170297.75544   1681736.33643  25120549.5964   25120557.1574   25120549.9934
     -2055.4714      -1601.6594
    678515.59244    526347.73143  23368182.9634   23368189.7594   23368181.6134
      -665.0364       -518.2034
  -5211880.92248  -4038862.79647  24642473.3534   24642478.9064   24642473.2074
      4803.8174       3743.2234
   1096193.50344    851059.11843  22560614.3324   22560618.3104   22560613.2104
     -1206.0464       -939.7804
   -986297.53348   -762332.44647  22194518.8704   22194522.5504   22194518.2284
       551.6224        429.8234
     98451.66454     89792.91443  24564050.1394   24564049.1214
      -353.0684       -275.1274
  -2225486.25648  -1555846.93947  20328167.9154   20328171.6454   20328167.3714
      1697.0024       1322.3344
 97  6 10  3  1  9.0000000  0  8G21G17G23G25G 3G31G 9G 1
   -876902.17948   -678715.59147  20968263.0494   20968267.4684   20968262.4314
       662.5784        516.2974
   2172353.03444   1683337.85143  25120940.7184   25120947.1284   25120940.8844
     -2055.1314      -1601.4064
    679180.46544    526865.81343  23368309.6014   23368316.3464   23368307.8064
      -664.7524       -517.9834
  -5216685.02848  -4042606.25147  24641559.2304   24641564.8394   24641559.4084
      4804.3084       3743.6084
   1097399.50344    851998.85943  22560843.7644   22560847.1824   22560843.2494
     -1206.0084       -939.7384
   -986849.13448   -762762.26247  22194413.9134   22194417.5464   22194413.8054
       551.4154        429.6574
     98802.99854     90066.68143  24564116.2054   24564115.9674
      -348.6944       -271.7014
  -2227183.18348  -1557169.21947  20327844.9974   20327848.6234   20327844.3744
      1696.7934       1322.1754
 97  6 10  3  1 10.0000000  0  8G21G17G23G25G 3G31G 9G 1
   -877564.34948   -679231.56947  20968137.0014   20968141.2824   20968136.5524
       662.0944        515.9274
   2174408.63044   1684939.61143  25121332.0164   25121338.9164   25121332.9844
     -2055.6214      -1601.7764
    679845.54244    527384.05343  23368436.1604   23368443.0764   23368433.8724
      -665.0864       -518.2424
  -5221488.99348  -4046349.59747  24640645.1544   24640650.2664   24640645.4334
      4804.0524       3743.4154
   1098606.00944    852938.99043  22561073.2824   22561077.1464   22561072.9154
     -1206.6564       -940.2494
   -987399.98448   -763191.50047  22194309.1044   22194312.8474   22194309.1554
       550.5324        428.9904
     99148.80554     90336.13843  24564181.2044   24564181.6914
      -338.0894       -263.4484
  -2228879.39948  -1558490.94747  20327522.2244   20327525.7584   20327521.5464
      1695.9464       1321.5194
 97  6 10  3  1 11.0000000  0  7G21G17G23G25G 3G31G 1
   -878226.35248   -679747.41647  20968011.0014   20968015.3764   20968010.1304
       661.8874        515.7574
   2176464.30544   1686541.43643  25121723.2534   25121731.3164   25121725.0164
     -2055.7984      -1601.9284
    680510.63444    527902.30443  23368562.6904   23368569.2204   23368560.7344
      -665.1034       -518.2564
  -5226293.02448  -4050092.99847  24639731.0474   24639736.0184   24639731.1324
      4803.9964       3743.3634
   1099812.82444    853879.36143  22561302.8864   22561307.2464   22561302.6304
     -1207.0474       -940.5604
   -987950.28148   -763620.30347  22194204.3714   22194208.0774   22194203.7234
       549.9044        428.5104
  -2230575.10248  -1559812.27547  20327199.5214   20327203.2014   20327198.8264
      1695.3774       1321.0734
 97  6 10  3  1 12.0000000  0  7G21G17G23G25G 3G31G 1
   -878887.88348   -680262.89347  20967885.1044   20967889.4954   20967884.4114
       661.1404        515.1684
   2178520.37544   1688143.56743  25122114.6744   25122122.9834   25122115.1734
     -2056.3934      -1602.3874
    681176.06344    528420.82243  23368689.2224   23368695.7704   23368687.8814
      -665.7424       -518.7634
  -5231096.83248  -4053836.22247  24638816.9914   24638822.3924   24638817.0014
      4803.5494       3743.0264
   1101020.25444    854820.21843  22561532.6004   22561536.6584   22561532.5184
     -1207.8534       -941.1914
   -988499.69148   -764048.41947  22194099.8524   22194103.6764   22194099.0484
       548.8354        427.6614
  -2232269.98348  -1561132.96147  20326876.9614   20326880.6524   20326876.2704
      1694.3174       1320.2434
 97  6 10  3  1 13.0000000  0  7G21G17G23G25G 3G31G 1
   -879548.55348   -680777.70347  20967759.3374   20967763.9274   20967758.6154
       660.4834        514.6684
   2180577.25544   1689746.32743  25122506.0984   25122514.2494   25122507.1804
     -2057.0714      -1602.9004
    681842.17444    528939.86543  23368815.9294   23368822.7174   23368814.7194
      -666.2604       -519.1514
  -5235900.01548  -4057578.96047  24637903.0094   24637908.3894   24637902.9254
      4803.1354       3742.7124
   1102228.67444    855761.84243  22561762.5454   22561766.7664   22561762.5904
     -1208.6664       -941.8094
   -989047.86348   -764475.56947  22193995.5144   22193999.1154   22193995.0794
       547.7684        426.8504
  -2233963.65048  -1562452.70247  20326554.6224   20326558.4884   20326554.0254
      1693.2974       1319.4574
 97  6 10  3  1 14.0000000  0  7G21G17G23G25G 3G31G 1
   -880208.71848   -681292.11847  20967633.6994   20967638.2224   20967633.1664
       659.9274        514.2334
   2182634.53544   1691349.40243  25122897.6984   25122905.8274   25122898.2784
     -2057.4944      -1603.2424
    682508.63444    529459.17943  23368942.7704   23368949.5864   23368941.7544
      -666.5944       -519.4204
  -5240702.93948  -4061321.49547  24636989.1484   24636994.0504   24636988.8084
      4802.8134       3742.4504
   1103437.71644    856703.95243  22561992.6224   22561997.3264   22561992.2574
     -1209.3514       -942.3524
   -989595.15748   -764902.03047  22193891.4204   22193894.8384   22193890.8114
       546.8474        426.1024
  -2235656.48748  -1563771.79547  20326232.4314   20326236.3714   20326232.0534
      1692.4344       1318.7784
 97  6 10  3  1 15.0000000  0  7G21G17G23G25G 3G31G 1
   -880868.80248   -681806.47047  20967508.1044   20967512.6584   20967507.7614
       660.1494        514.4084
   2184691.83444   1692952.48943  25123289.1134   25123297.4324   25123289.7154
     -2057.1884      -1603.0064
    683175.00744    529978.43243  23369069.7534   23369076.1184   23369068.8484
      -666.2164       -519.1264
  -5245506.00248  -4065064.14347  24636075.1694   24636079.7494   24636074.7474
      4803.3004       3742.8214
   1104646.96744    857646.22343  22562222.7294   22562227.1974   22562222.4354
     -1209.2304       -942.2454
   -990141.95148   -765328.10747  22193787.4234   22193790.9104   22193787.4734
       546.6574        425.9654
  -2237348.90148  -1565090.55947  20325910.3074   20325914.3084   20325909.9074
      1692.3024       1318.6774
 97  6 10  3  1 16.0000000  0  7G21G17G23G25G 3G31G 1
   -881528.86848   -682320.80747  20967382.5464   20967386.9274   20967382.2164
       659.9204        514.2254
   2186749.05344   1694555.51643  25123680.4114   25123688.7044   25123680.4994
     -2057.3554      -1603.1274
    683841.22944    530497.56943  23369196.7224   23369202.7694   23369195.8704
      -666.2574       -519.1624
  -5250309.32248  -4068806.99247  24635161.0404   24635165.3144   24635160.6114
      4803.3034       3742.8394
   1105856.36644    858588.61443  22562452.8214   22562457.3944   22562452.2374
     -1209.6034       -942.5454
   -990688.35348   -765753.88047  22193683.5164   22193687.2504   22193683.1274
       546.0864        425.5144
  -2239040.99648  -1566409.07447  20325588.2644   20325592.2064   20325587.8034
      1691.7884       1318.2734
 97  6 10  3  1 17.0000000  0  7G21G17G23G25G 3G31G 1
   -882189.17748   -682835.33247  20967256.8714   20967261.2004   20967256.3944
       660.5004        514.6734
   2188805.92744   1696158.27243  25124071.7654   25124079.9314   25124071.4224
     -2056.5954      -1602.5454
    684507.04844    531016.38743  23369323.6104   23369329.0384   23369322.8894
      -665.5114       -518.5814
  -5255113.14448  -4072550.22747  24634246.9314   24634251.2824   24634246.5134
      4804.1344       3743.4694
   1107065.61944    859530.89243  22562682.9384   22562687.4764   22562682.7164
     -1209.1044       -942.1534
   -991234.61548   -766179.53547  22193579.7064   22193583.2154   22193579.2494
       546.2604        425.6594
  -2240733.00948  -1567727.52747  20325266.2334   20325270.4154   20325265.9124
      1692.0614       1318.4884
 97  6 10  3  1 18.0000000  0  7G21G17G23G25G 3G31G 1
   -882849.51648   -683349.88347  20967131.1774   20967135.5004   20967130.5844
       660.2844        514.5084
   2190862.68944   1697760.94543  25124463.0734   25124470.1694   25124464.8184
     -2056.7074      -1602.6374
    685172.67244    531535.05343  23369450.3644   23369455.5954   23369449.6404
      -665.5864       -518.6354
  -5259917.22948  -4076293.66847  24633332.7074   24633337.2304   24633332.5394
      4804.1764       3743.5114
   1108274.98544    860473.25443  22562913.0264   22562917.4694   22562912.1764
     -1209.4854       -942.4524
   -991780.52748   -766604.92147  22193475.9584   22193479.7774   22193475.1564
       545.6584        425.1984
  -2242424.71348  -1569045.73747  20324944.2704   20324948.5014   20324943.9184
      1691.5054       1318.0574
 97  6 10  3  1 19.0000000  0  7G21G17G23G25G 3G31G 1
   -883509.68248   -683864.30147  20967005.5764   20967010.0614   20967005.1964
       660.1054        514.3684
   2192919.57644   1699363.70943  25124854.3554   25124862.0014   25124856.1034
     -2056.9174      -1602.7984
    685838.29544    532053.72043  23369577.0864   23369581.7954   23369576.0414
      -665.5974       -518.6514
  -5264721.38848  -4080037.16247  24632418.4654   24632423.2984   24632418.1404
      4804.2524       3743.5644
   1109484.66044    861415.85643  22563143.1414   22563147.8034   22563143.2964
     -1209.8014       -942.7084
   -992325.86848   -767029.86547  22193372.3034   22193375.6134   22193371.1114
       545.0534        424.7174
  -2244115.90648  -1570363.54947  20324622.4054   20324626.6314   20324622.1294
      1690.9834       1317.6494
 97  6 10  3  1 20.0000000  0  7G21G17G23G25G 3G31G 1
   -884169.59348   -684378.51747  20966880.0614   20966884.3604   20966879.6014
       659.6594        514.0204
   2194976.62944   1700966.60643  25125245.6994   25125253.9874   25125248.2644
     -2057.2484      -1603.0394
    686504.02144    532572.46443  23369703.7344   23369708.0174   23369702.9404
      -665.9024       -518.8814
  -5269525.54548  -4083780.65847  24631504.2624   24631509.1924   24631503.5804
      4804.0354       3743.3994
   1110694.70844    862358.75243  22563373.3594   22563378.6224   22563373.9394
     -1210.3714       -943.1434
   -992870.57148   -767454.31247  22193268.7114   22193272.2584   22193267.5964
       544.2124        424.0594
  -2245806.51148  -1571680.90547  20324300.6644   20324304.8254   20324300.3574
      1690.2204       1317.0554
 97  6 10  3  1 21.0000000  0  7G21G17G23G25G 3G31G 1
   -884829.43048   -684892.67647  20966754.5744   20966758.8444   20966754.1104
       659.7214        514.0684
   2197033.68044   1702569.50243  25125637.1684   25125645.8454   25125639.8614
     -2057.1474      -1602.9714
    687169.65644    533091.13643  23369830.3244   23369834.9144   23369829.5604
      -665.6614       -518.6944
  -5274329.87348  -4087524.28447  24630590.0514   24630594.9034   24630589.0644
      4804.3954       3743.6754
   1111904.96144    863301.80343  22563603.6414   22563608.4214   22563603.7934
     -1210.4054       -943.1724
   -993414.81348   -767878.40147  22193165.2174   22193168.5464   22193163.6664
       543.9204        423.8334
  -2247496.70548  -1572997.93947  20323979.0154   20323983.2404   20323978.7114
      1689.9424       1316.8344
 97  6 10  3  1 22.0000000  0  7G21G17G23G25G 3G31G 1
   -885488.73848   -685406.42147  20966629.1874   20966633.3404   20966628.6784
       658.9574        513.4724
   2199091.16944   1704172.73443  25126028.7804   25126037.2244   25126030.0104
     -2057.7914      -1603.4624
    687835.64944    533610.09343  23369956.9494   23369961.3544   23369956.6534
      -666.2724       -519.1754
  -5279133.92048  -4091267.69247  24629675.9054   24629681.0854   24629674.5514
      4803.8434       3743.2524
   1113115.89044    864245.37943  22563834.0264   22563839.1994   22563834.9444
     -1211.3624       -943.9064
   -993958.15048   -768301.77647  22193061.8134   22193064.7194   22193060.9584
       542.7354        422.9214
  -2249186.05848  -1574314.31847  20323657.5414   20323661.9174   20323657.2744
      1688.8134       1315.9614
 97  6 10  3  1 23.0000000  0  7G21G17G23G25G 3G31G 1
   -886147.70348   -685919.89847  20966503.8224   20966507.9224   20966503.1814
       658.9184        513.4504
   2201148.93044   1705776.18143  25126420.5624   25126429.2994   25126421.4184
     -2057.7824      -1603.4574
    688501.84344    534129.20443  23370083.6424   23370088.0974   23370083.5374
      -666.1644       -519.0944
  -5283937.88048  -4095011.03047  24628761.7714   24628766.6344   24628760.3774
      4804.0384       3743.4054
   1114327.29244    865189.32643  22564064.4714   22564069.3314   22564064.7534
     -1211.5654       -944.0724
   -994500.75148   -768724.57647  22192958.5694   22192961.2754   22192957.6604
       542.3174        422.5874
  -2250874.74548  -1575630.17647  20323336.1604   20323340.3584   20323335.8764
      1688.4994       1315.7194
 97  6 10  3  1 24.0000000  0  7G21G17G23G25G 3G31G 1
   -886805.93348   -686432.80647  20966378.6064   20966382.7424   20966377.8674
       657.9714        512.7084
   2203207.33044   1707380.12243  25126812.4174   25126821.3704   25126812.3914
     -2058.6224      -1604.1104
    689168.60244    534648.75543  23370210.3924   23370215.2814   23370210.6574
      -666.9494       -519.6954
  -5288741.33348  -4098753.97147  24627847.7364   24627852.1444   24627845.9794
      4803.3354       3742.8564
   1115539.55844    866133.94843  22564295.1504   22564299.5314   22564295.4564
     -1212.5894       -944.8754
   -995042.24348   -769146.51847  22192855.5414   22192858.9244   22192854.6124
       540.9864        421.5564
  -2252562.37648  -1576945.21147  20323014.9894   20323019.4404   20323014.6874
      1687.1964       1314.6964
 97  6 10  3  1 25.0000000  0  7G21G17G23G25G 3G31G 1
   -887463.75148   -686945.39447  20966253.4784   20966257.5094   20966252.7354
       657.5994        512.4144
   2205266.05244   1708984.31943  25127204.2674   25127212.8884   25127203.7724
     -2058.8844      -1604.3224
    689835.59144    535168.48843  23370337.2944   23370342.2794   23370337.4804
      -667.1024       -519.8254
  -5293544.61948  -4102496.79047  24626933.7104   24626937.9274   24626932.5004
      4803.2114       3742.7614
   1116752.39044    867079.01343  22564525.9364   22564530.9054   22564526.0294
     -1213.1024       -945.2794
   -995582.94648   -769567.85247  22192752.5704   22192755.7314   22192751.5814
       540.2624        420.9884
  -2254249.29148  -1578259.69247  20322693.9704   20322698.3954   20322693.9114
      1686.5184       1314.1684
 97  6 10  3  1 26.0000000  0  7G21G17G23G25G 3G31G 1
   -888121.38248   -687457.83547  20966128.4094   20966132.0834   20966127.6024
       657.5604        512.3804
   2207324.87544   1710588.59543  25127596.1644   25127604.5674   25127595.1864
     -2058.9294      -1604.3554
    690502.59144    535688.22843  23370464.2454   23370469.6174   23370464.1454
      -666.9564       -519.7084
  -5298347.99748  -4106239.68247  24626019.6514   24626024.0644   24626019.1314
      4803.3864       3742.9004
   1117965.53044    868024.31343  22564756.7864   22564761.7144   22564757.1344
     -1213.3294       -945.4494
   -996123.10148   -769988.75947  22192649.6984   22192653.1674   22192648.5634
       539.8484        420.6694
  -2255935.70348  -1579573.78347  20322373.0414   20322377.5004   20322373.0434
      1686.1884       1313.9094
 97  6 10  3  1 27.0000000  0  7G21G17G23G25G 3G31G 1
   -888779.27248   -687970.47647  20966003.2464   20966007.0974   20966002.4924
       657.9884        512.7214
   2209383.35044   1712192.60043  25127987.9744   25127996.3254   25127986.7914
     -2058.4174      -1603.9654
    691169.16244    536207.63643  23370591.1964   23370596.3334   23370591.2844
      -666.3884       -519.2634
  -5303151.87148  -4109982.95947  24625105.5694   24625109.9554   24625105.0254
      4804.1064       3743.4454
   1119178.56144    868969.53243  22564987.5784   22564991.8544   22564988.2974
     -1212.9634       -945.1694
   -996663.13648   -770409.56747  22192546.8794   22192550.3054   22192545.9554
       539.9234        420.7274
  -2257622.04348  -1580887.81447  20322052.1504   20322056.5274   20322052.0954
      1686.2674       1313.9744
 97  6 10  3  1 28.0000000  0  7G21G17G23G25G 3G31G 1
   -889436.85548   -688482.87847  20965878.0894   20965882.0024   20965877.3774
       657.8244        512.5914
   2211442.00144   1713796.73643  25128379.5014   25128387.7484   25128378.6034
     -2058.3404      -1603.8894
    691835.85644    536727.13943  23370718.1984   23370723.2544   23370718.3174
      -666.3374       -519.2234
  -5307955.68848  -4113726.19147  24624191.5064   24624195.2014   24624191.0534
      4804.2034       3743.5294
   1120392.03744    869915.09543  22565218.4974   22565223.1644   22565219.1554
     -1213.2514       -945.3904
   -997202.51448   -770829.85747  22192444.2124   22192447.1554   22192443.0434
       539.4444        420.3464
  -2259307.79148  -1582201.38547  20321731.3894   20321735.7274   20321731.3574
      1685.8514       1313.6474
 97  6 10  3  1 29.0000000  0  7G21G17G23G25G 3G31G 1
   -890094.56448   -688995.37847  20965752.9454   20965756.6764   20965752.3404
       657.5424        512.3694
   2213500.47044   1715400.73443  25128770.9454   25128779.6284   25128770.3934
     -2058.5304      -1604.0474
    692502.25044    537246.40643  23370845.1964   23370850.2334   23370845.6434
      -666.4604       -519.3244
  -5312759.88848  -4117469.72247  24623277.3444   24623281.2664   24623276.6784
      4804.1504       3743.4984
   1121605.51344    870860.66143  22565449.4354   22565454.0914   22565449.9184
     -1213.7184       -945.7684
   -997741.63348   -771249.95247  22192341.6654   22192344.4434   22192340.4234
       538.7214        419.7814
  -2260993.33148  -1583514.78847  20321410.6864   20321414.9704   20321410.5544
      1685.2434       1313.1724
 97  6 10  3  1 30.0000000  0  7G21G17G23G25G 3G31G 1
   -890752.15448   -689507.78747  20965627.8604   20965631.4144   20965627.0944
       657.4144        512.2724
   2215558.94644   1717004.74343  25129162.4464   25129170.8854   25129162.5654
     -2058.5844      -1604.0954
    693168.59744    537765.63643  23370972.0234   23370977.1864   23370972.6354
      -666.4164       -519.2914
  -5317564.22348  -4121213.35847  24622363.1054   24622367.3464   24622362.3444
      4804.3194       3743.6324
   1122819.24744    871806.42043  22565680.4574   22565685.3114   22565680.2194
     -1213.9714       -945.9404
   -998280.26948   -771669.66747  22192239.2614   22192242.1684   22192237.8624
       538.2334        419.4144
  -2262678.44348  -1584827.86247  20321090.0784   20321094.5394   20321090.0654
      1684.7694       1312.8114
 97  6 10  3  1 31.0000000  0  7G21G17G23G25G 3G31G 1
   -891409.54348   -690020.03847  20965502.8294   20965506.3274   20965502.2254
       657.1534        512.0644
   2217617.52244   1718608.82443  25129553.9944   25129562.8164   25129554.4594
     -2058.7254      -1604.1964
    693834.94244    538284.86243  23371098.9174   23371103.9964   23371099.5874
      -666.5074       -519.3544
  -5322368.60548  -4124957.02747  24621448.8244   24621453.3744   24621448.0224
      4804.2684       3743.5804
   1124033.29344    872752.43243  22565911.4474   22565915.9294   22565911.1804
     -1214.3624       -946.2594
   -998818.33448   -772088.94647  22192137.0204   22192139.9804   22192135.9114
       537.5894        418.9244
  -2264363.05748  -1586140.54847  20320769.5624   20320773.6904   20320769.3624
      1684.2054       1312.3684
 97  6 10  3  1 32.0000000  0  7G21G17G23G25G 3G31G 1
   -892066.68648   -690532.09947  20965377.8314   20965381.2344   20965377.0064
       657.4274        512.2884
   2219676.21944   1720212.99943  25129945.6144   25129955.5674   25129945.2004
     -2058.3204      -1603.8804
    694501.34844    538804.13643  23371225.9114   23371230.7954   23371225.9534
      -665.9944       -518.9564
  -5327173.02048  -4128700.72147  24620534.4934   24620538.8994   24620533.5284
      4804.7954       3744.0014
   1125247.73244    873698.75043  22566142.5604   22566147.6534   22566142.5354
     -1214.2644       -946.1874
   -999355.78748   -772507.74147  22192034.8234   22192037.9984   22192033.3934
       537.5234        418.8524
  -2266047.11648  -1587452.80347  20320449.1394   20320453.3054   20320448.9014
      1684.1804       1312.3444
 97  6 10  3  1 33.0000000  0  7G21G17G23G25G 3G31G 1
   -892723.27848   -691043.72747  20965252.9444   20965256.3244   20965251.9264
       656.0014        511.1654
   2221735.38244   1721817.53543  25130337.3014   25130347.1954   25130338.3604
     -2059.6464      -1604.9124
    695168.12444    539323.69843  23371352.9974   23371357.7474   23371352.4484
      -667.2984       -519.9774
  -5331977.15748  -4132444.19847  24619620.2664   24619625.0534   24619619.5104
      4803.6994       3743.1324
   1126462.81144    874645.56743  22566373.8014   22566379.0344   22566374.1514
     -1215.6944       -947.2934
   -999892.32848   -772925.82447  22191932.7854   22191935.5164   22191931.3504
       535.7434        417.4684
  -2267730.31948  -1588764.38647  20320128.8724   20320132.8774   20320128.3944
      1682.4444       1310.9854
 97  6 10  3  1 34.0000000  0  7G21G17G23G25G 3G31G 1
   -893379.26648   -691554.88747  20965128.1394   20965131.5114   20965127.3194
       655.6484        510.8924
   2223795.05544   1723422.46843  25130729.1404   25130737.0344   25130729.2284
     -2059.9904      -1605.1834
    695835.31344    539843.58743  23371480.1454   23371484.3784   23371479.3924
      -667.4404       -520.0774
  -5336780.95948  -4136187.41847  24618706.0594   24618711.0674   24618705.4914
      4803.6064       3743.0644
   1127678.67344    875592.99343  22566605.2334   22566609.5054   22566605.9274
     -1216.2424       -947.7244
  -1000427.89348   -773343.15047  22191830.9274   22191833.7444   22191829.4664
       535.0474        416.9154
  -2269412.60948  -1590075.26347  20319808.7524   20319812.8394   20319808.3464
      1681.7944       1310.4894
 97  6 10  3  1 35.0000000  0  7G21G17G23G25G 3G31G 1
   -894034.73348   -692065.64147  20965003.4184   20965006.9794   20965002.6464
       655.1684        510.5244
   2225855.16344   1725027.74243  25131121.0994   25131129.5634   25131120.5394
     -2060.3864      -1605.4964
    696502.86844    540363.76043  23371607.3824   23371611.3674   23371606.8574
      -667.7634       -520.3304
  -5341584.50448  -4139930.44147  24617791.9444   24617797.0144   24617790.6454
      4803.3434       3742.8644
   1128895.15844    876540.90143  22566836.7974   22566841.4084   22566837.3624
     -1216.8754       -948.2134
  -1000962.58248   -773759.78947  22191729.1944   22191732.7734   22191727.7814
       534.1534        416.2414
  -2271094.06848  -1591385.48847  20319488.7894   20319492.9174   20319488.3484
      1681.0044       1309.8724
 97  6 10  3  1 36.0000000  0  7G21G17G23G25G 3G31G 1
   -894689.56248   -692575.89747  20964878.8074   20964882.1694   20964877.8694
       654.8734        510.2944
   2227915.80044   1726633.43243  25131513.1424   25131521.2604   25131511.9884
     -2060.5264      -1605.5974
    697170.89144    540884.29743  23371734.7684   23371738.1054   23371734.2004
      -667.8864       -520.4294
  -5346387.65148  -4143673.15147  24616877.8814   24616883.1054   24616876.4984
      4803.3764       3742.8934
   1130112.41744    877489.41443  22567068.4804   22567072.9274   22567068.0784
     -1217.2754       -948.5124
  -1001496.22848   -774175.62047  22191627.5944   22191630.8904   22191626.1404
       533.4774        415.7104
  -2272774.56248  -1592694.96647  20319168.9604   20319173.1014   20319168.5764
      1680.3794       1309.3924
 97  6 10  3  1 37.0000000  0  7G21G17G23G25G 3G31G 1
   -895344.61948   -693086.33547  20964754.1674   20964757.5214   20964753.2164
       655.3634        510.6764
   2229976.12044   1728238.87243  25131905.0454   25131914.1614   25131903.9984
     -2059.9344      -1605.1304
    697838.51744    541404.52443  23371862.0934   23371865.4524   23371861.5494
      -667.2194       -519.9034
  -5351191.29448  -4147416.24747  24615963.7444   24615968.9234   24615962.3954
      4804.1074       3743.4654
   1131329.58344    878437.85543  22567300.1914   22567304.8854   22567299.9294
     -1216.9284       -948.2624
  -1002029.72748   -774591.33847  22191525.9944   22191528.3264   22191524.7114
       533.5964        415.7994
  -2274454.98848  -1594004.39147  20318849.1564   20318853.4344   20318848.9814
      1680.5594       1309.5324
 97  6 10  3  1 38.0000000  0  7G21G17G23G25G 3G31G 1
   -895999.76248   -693596.83647  20964629.5114   20964632.9134   20964628.7334
       655.1584        510.5144
   2232036.28144   1729844.18343  25132296.9514   25132305.6424   25132297.0624
     -2060.0814      -1605.2514
    698505.91744    541924.57643  23371989.3734   23371992.0124   23371988.2644
      -667.3164       -519.9884
  -5355995.25448  -4151159.59247  24615049.6314   24615054.7994   24615048.5634
      4804.1034       3743.4544
   1132546.77344    879386.31443  22567531.8244   22567536.3724   22567531.6584
     -1217.2554       -948.4994
  -1002562.92748   -775006.82247  22191424.4834   22191427.2194   22191422.9074
       532.9764        415.2984
  -2276135.18348  -1595313.63547  20318529.4444   20318533.4934   20318529.0614
      1680.0624       1309.1384
 97  6 10  3  1 39.0000000  0  7G21G17G23G25G 3G31G 1
   -896655.02848   -694107.43447  20964504.8394   20964508.1694   20964504.0784
       655.0864        510.4544
   2234096.18844   1731449.29843  25132688.8514   25132696.5194   25132688.5224
     -2060.0664      -1605.2404
    699173.02644    542444.40643  23372116.5804   23372118.7194   23372114.9744
      -667.2244       -519.9194
  -5360799.59048  -4154903.23047  24614135.3054   24614140.6144   24614134.4934
      4804.3154       3743.6154
   1133763.96644    880334.77843  22567763.5194   22567768.2934   22567763.3664
     -1217.4474       -948.6524
  -1003095.87848   -775422.10847  22191322.9834   22191326.3344   22191321.3814
       532.5514        414.9814
  -2277815.18448  -1596622.72547  20318209.7804   20318213.7054   20318209.5084
      1679.6414       1308.8054
 97  6 10  3  1 40.0000000  0  7G21G17G23G25G 3G31G 1
   -897310.39848   -694618.11047  20964380.1454   20964383.1994   20964379.2594
       655.1074        510.4744
   2236155.90844   1733054.27043  25133080.6104   25133088.6474   25133079.3894
     -2059.9124      -1605.1284
    699839.87444    542964.02743  23372243.6224   23372245.8464   23372241.7414
      -667.0534       -519.7784
  -5365604.28548  -4158647.14747  24613220.9484   24613226.1074   24613220.3024
      4804.5844       3743.8324
   1134981.16844    881283.25143  22567995.2324   22567999.7764   22567995.1484
     -1217.5434       -948.7404
  -1003628.53948   -775837.16747  22191221.5044   22191224.3444   22191220.7244
       532.1984        414.6904
  -2279494.99948  -1597931.67147  20317890.1644   20317894.3254   20317889.7394
      1679.3944       1308.6204
 97  6 10  3  1 41.0000000  0  7G21G17G23G25G 3G31G 1
   -897965.44848   -695128.53847  20964255.4704   20964258.5354   20964254.4494
       654.7904        510.2284
   2238215.84544   1734659.41043  25133472.3524   25133480.3134   25133471.8234
     -2060.2284      -1605.3704
    700506.89244    543483.78143  23372370.6714   23372372.9964   23372368.9974
      -667.2064       -519.8984
  -5370408.90348  -4162391.00147  24612306.5964   24612311.9934   24612306.0874
      4804.4394       3743.7164
   1136198.81044    882232.06143  22568227.0524   22568231.6124   22568226.8524
     -1217.9594       -949.0664
  -1004160.48948   -776251.67347  22191120.1474   22191122.9974   22191119.1934
       531.4224        414.0944
  -2281174.17748  -1599240.12147  20317570.6784   20317574.6264   20317570.2304
      1678.7664       1308.1324
 97  6 10  3  1 42.0000000  0  7G21G17G23G25G 3G31G 1
   -898620.33248   -695638.83747  20964130.8014   20964134.0194   20964129.8434
       655.1654        510.5184
   2240275.82844   1736264.58743  25133863.9584   25133873.3314   25133864.0164
     -2059.6514      -1604.9134
    701173.90144    544003.52843  23372497.6414   23372499.2334   23372495.9434
      -666.6514       -519.4634
  -5375213.63848  -4166134.95147  24611392.2254   24611397.6754   24611391.5264
      4805.1364       3744.2684
   1137416.72744    883181.08443  22568458.8164   22568463.1444   22568457.5514
     -1217.6954       -948.8444
  -1004691.87948   -776665.73747  22191018.8904   22191022.4604   22191017.9234
       531.4624        414.1284
  -2282852.87648  -1600548.19747  20317251.2614   20317255.2484   20317250.9284
      1678.8224       1308.1714
 97  6 10  3  1 43.0000000  0  7G21G17G23G25G 3G31G 1
   -899275.02048   -696148.98547  20964006.1804   20964009.4444   20964005.4264
       654.6164        510.0964
   2242335.96344   1737869.88343  25134255.7754   25134267.7464   25134255.9694
     -2060.1764      -1605.3284
    701840.94844    544523.30043  23372624.5734   23372626.3474   23372622.6024
      -667.0624       -519.7784
  -5380018.39148  -4169878.90947  24610477.8504   24610483.1064   24610477.3674
      4804.8004       3743.9944
   1138634.96644    884130.36143  22568690.7004   22568695.0604   22568689.6574
     -1218.3874       -949.4064
  -1005222.66148   -777079.33247  22190917.7294   22190921.7914   22190916.7974
       530.4794        413.3464
  -2284531.07148  -1601855.88147  20316931.9334   20316935.8144   20316931.5424
      1677.9474       1307.4904
 97  6 10  3  1 44.0000000  0  7G21G17G23G25G 3G31G 1
   -899929.27048   -696658.79147  20963881.6794   20963885.0174   20963880.7354
       653.7834        509.4444
   2244396.39844   1739475.41643  25134647.6844   25134659.2114   25134648.9024
     -2060.9254      -1605.9164
    702508.28044    545043.29843  23372751.5424   23372753.7474   23372749.4944
      -667.7264       -520.3054
  -5384822.96348  -4173622.72747  24609563.5954   24609569.2664   24609563.0034
      4804.1794       3743.5104
   1139853.74244    885080.05943  22568922.6764   22568926.6424   22568921.6044
     -1219.3254       -950.1244
  -1005752.60848   -777492.28347  22190816.7454   22190820.8834   22190816.1254
       529.2124        412.3734
  -2286208.51848  -1603162.98247  20316612.7514   20316616.8014   20316612.1494
      1676.8414       1306.6324
 97  6 10  3  1 45.0000000  0  7G21G17G23G25G 3G31G 1
   -900582.84548   -697168.06947  20963757.3174   20963760.4964   20963756.4184
       653.3574        509.1054
   2246457.45944   1741081.43443  25135039.8114   25135051.6114   25135042.3734
     -2061.1984      -1606.1294
    703176.13544    545563.70243  23372878.6234   23372880.9964   23372876.7534
      -668.0134       -520.5304
  -5389627.11748  -4177366.22047  24608649.2774   24608655.2194   24608648.4314
      4804.0794       3743.4374
   1141073.31444    886030.37143  22569154.8654   22569158.5054   22569153.8234
     -1219.8524       -950.5384
  -1006281.48648   -777904.39947  22190715.9984   22190720.3264   22190715.6044
       528.4334        411.7654
  -2287884.97248  -1604469.30947  20316293.7644   20316297.6404   20316293.1574
      1676.0614       1306.0194
 97  6 10  3  1 46.0000000  0  7G21G17G23G25G 3G31G 1
   -901235.78848   -697676.85847  20963633.0524   20963636.2014   20963632.2544
       652.4724        508.4204
   2248519.05544   1742687.87143  25135432.0934   25135443.7664   25135435.1324
     -2061.9654      -1606.7244
    703844.43644    546084.44943  23373005.8004   23373007.4124   23373003.8764
      -668.7134       -521.0634
  -5394430.86348  -4181109.39347  24607735.1284   24607740.6754   24607734.1004
      4803.4274       3742.9164
   1142293.62844    886981.26343  22569387.1064   22569390.9684   22569386.3974
     -1220.8204       -951.2954
  -1006809.32148   -778315.69647  22190615.4784   22190619.4064   22190615.0164
       527.1494        410.7634
  -2289560.49648  -1605774.91047  20315974.9804   20315978.8804   20315974.1874
      1674.8914       1305.1054
 97  6 10  3  1 47.0000000  0  7G21G17G23G25G 3G31G 1
   -901888.18248   -698185.21947  20963508.9194   20963512.1044   20963508.3244
       652.2664        508.2564
   2250581.12044   1744294.66943  25135824.4664   25135833.8614   25135826.5134
     -2062.1594      -1606.8704
    704513.12044    546605.49743  23373133.1214   23373134.7334   23373131.1244
      -668.6984       -521.0584
  -5399234.30948  -4184852.33547  24606820.9684   24606826.8074   24606820.7064
      4803.4164       3742.9244
   1143514.60244    887932.67743  22569619.3594   22569623.0904   22569618.5764
     -1221.1444       -951.5594
  -1007336.22348   -778726.26847  22190515.1494   22190519.2204   22190514.5434
       526.5444        410.2844
  -2291235.14748  -1607079.83347  20315656.3104   20315660.1674   20315655.4924
      1674.4034       1304.7284
 97  6 10  3  1 48.0000000  0  7G21G17G23G25G 3G31G 1
   -902540.79348   -698693.74947  20963384.7304   20963387.7234   20963384.1794
       652.9324        508.7804
   2252642.85644   1745901.21343  25136216.9034   25136226.4524   25136218.1024
     -2061.3944      -1606.2714
    705181.41044    547126.23443  23373260.3674   23373261.9544   23373258.5314
      -667.9194       -520.4464
  -5404038.24848  -4188595.66447  24605906.7084   24605912.9144   24605906.5774
      4804.4124       3743.7054
   1144735.46544    888883.99143  22569851.6204   22569855.3034   22569850.9044
     -1220.5984       -951.1104
  -1007862.94248   -779136.70847  22190414.9104   22190419.4494   22190414.1884
       526.8094        410.5124
  -2292909.70248  -1608384.68247  20315337.6204   20315341.4314   20315337.0954
      1674.7064       1304.9774
 97  6 10  3  1 49.0000000  0  7G21G17G23G25G 3G31G 1
   -903193.64948   -699202.46847  20963260.4814   20963263.4834   20963259.8124
       652.9794        508.8134
   2254704.22644   1747507.46743  25136609.2764   25136618.1844   25136610.8104
     -2061.1684      -1606.0954
    705849.25744    547646.63143  23373387.4504   23373388.9724   23373385.8434
      -667.6524       -520.2434
  -5408842.68448  -4192339.37547  24604992.3584   24604999.2094   24604992.6624
      4804.6824       3743.9074
   1145956.19144    889835.20843  22570083.9254   22570087.6454   22570082.8664
     -1220.6804       -951.1874
  -1008389.51548   -779547.02447  22190314.7964   22190319.8374   22190313.7174
       526.4744        410.2394
  -2294584.21148  -1609689.49347  20315018.9204   20315022.8304   20315018.2974
      1674.4664       1304.7694
 97  6 10  3  1 50.0000000  0  7G21G17G23G25G 3G31G 1
   -903846.50848   -699711.19147  20963136.2334   20963139.3414   20963135.6244
       652.7754        508.6524
   2256765.52544   1749113.66943  25137001.6244   25137008.9554   25137003.7814
     -2061.2144      -1606.1384
    706516.92444    548166.88943  23373514.5364   23373515.7254   23373513.3044
      -667.6604       -520.2594
  -5413647.37648  -4196083.29047  24604077.9204   24604085.2454   24604078.5054
      4804.7234       3743.9334
   1147177.03744    890786.51443  22570316.2224   22570319.9924   22570315.1074
     -1221.0094       -951.4384
  -1008915.68348   -779957.02447  22190214.7734   22190219.4274   22190213.9524
       525.7904        409.7014
  -2296258.39048  -1610994.04947  20314700.3064   20314704.2374   20314699.7094
      1673.9344       1304.3624
 97  6 10  3  1 51.0000000  0  7G21G17G23G25G 3G31G 1
   -904499.43648   -700219.96447  20963011.9644   20963015.1854   20963011.2504
       652.9714        508.8074
   2258826.65344   1750719.73943  25137393.9524   25137401.6114   25137393.7694
     -2061.0684      -1606.0284
    707184.34044    548686.95743  23373641.6644   23373642.7904   23373640.5714
      -667.3224       -520.0004
  -5418452.39948  -4199827.46147  24603163.3974   24603170.0504   24603164.3004
      4805.1974       3744.3024
   1148397.92544    891737.85443  22570548.4494   22570552.5594   22570547.1624
     -1220.8984       -951.3384
  -1009441.52548   -780366.77147  22190114.7724   22190118.8414   22190114.6194
       525.6644        409.6214
  -2297932.33548  -1612298.42147  20314381.7254   20314385.8584   20314381.2444
      1673.8264       1304.2804
 97  6 10  3  1 52.0000000  0  7G21G17G23G25G 3G31G 1
   -905152.06548   -700728.50847  20962887.7934   20962891.0104   20962887.1894
       652.4834        508.4304
   2260887.97644   1752325.95543  25137786.3964   25137793.1024   25137785.4384
     -2061.5084      -1606.3584
    707851.87244    549207.11543  23373768.7784   23373769.5074   23373767.6434
      -667.5944       -520.2044
  -5423257.36148  -4203571.58647  24602248.8384   24602255.3484   24602249.7794
      4804.9454       3744.1144
   1149619.25344    892689.53643  22570780.7824   22570784.8204   22570779.7124
     -1221.5654       -951.8664
  -1009966.62948   -780775.94247  22190014.8384   22190018.3724   22190014.1554
       524.6894        408.8514
  -2299605.65748  -1613602.31147  20314063.2794   20314067.4544   20314062.8734
      1673.0324       1303.6694
 97  6 10  3  1 53.0000000  0  7G21G17G23G25G 3G31G 1
   -905804.36848   -701236.79647  20962763.6504   20962766.6714   20962763.0694
       652.1534        508.1704
   2262949.54244   1753932.36443  25138178.6414   25138186.0134   25138178.0104
     -2061.6864      -1606.5024
    708519.57344    549727.40743  23373895.9084   23373896.8374   23373894.8794
      -667.7384       -520.3224
  -5428062.25848  -4207315.65847  24601334.3064   24601340.5044   24601335.1754
      4804.8484       3744.0454
   1150841.03044    893641.57143  22571013.1564   22571016.8374   22571012.3734
     -1222.0044       -952.2034
  -1010490.99448   -781184.53847  22189915.0494   22189919.2324   22189914.6434
       523.9504        408.2674
  -2301278.31848  -1614905.68047  20313744.9234   20313748.9054   20313744.4664
      1672.3774       1303.1444
 97  6 10  3  1 54.0000000  0  7G21G17G23G25G 3G31G 1
   -906456.65648   -701745.07147  20962639.5344   20962642.5354   20962639.0354
       651.8294        507.9164
   2265011.06444   1755538.74043  25138570.6574   25138577.9234   25138571.8734
     -2061.9734      -1606.7234
    709187.13044    550247.58143  23374022.9424   23374023.7664   23374021.6894
      -667.9324       -520.4704
  -5432867.39048  -4211059.91447  24600419.7934   24600426.1514   24600420.4864
      4804.8414       3744.0334
   1152062.94944    894593.71943  22571245.5484   22571249.7744   22571244.6784
     -1222.4094       -952.5164
  -1011014.94648   -781592.82147  22189815.3864   22189819.1364   22189814.8214
       523.2624        407.7494
  -2302950.64548  -1616208.79347  20313426.6894   20313430.7924   20313426.3394
      1671.7174       1302.6394
 97  6 10  3  1 55.0000000  0  7G21G17G23G25G 3G31G 1
   -907108.41848   -702252.93647  20962515.5084   20962518.5524   20962514.9934
       651.6584        507.7874
   2267073.03344   1757145.46843  25138963.1484   25138970.6454   25138965.6864
     -2062.0164      -1606.7754
    709855.03744    550768.03643  23374149.9934   23374150.7164   23374149.1364
      -667.9184       -520.4674
  -5437672.19948  -4214803.91547  24599505.2854   24599511.8764   24599505.7414
      4804.8714       3744.0444
   1153285.57844    895546.42043  22571478.0714   22571483.3534   22571476.9614
     -1222.8174       -952.8424
  -1011537.93448   -782000.34147  22189715.8634   22189719.7454   22189715.1654
       522.6834        407.2794
  -2304622.08848  -1617511.21647  20313108.5944   20313112.7914   20313108.3414
      1671.1674       1302.2114
 97  6 10  3  1 56.0000000  0  7G21G17G23G25G 3G31G 1
   -907759.84348   -702760.54347  20962391.5674   20962394.7214   20962390.9624
       651.0964        507.3534
   2269135.25744   1758752.38943  25139355.5684   25139363.9584   25139358.2434
     -2062.5314      -1607.1624
    710523.13644    551288.63143  23374277.0544   23374277.6294   23374275.1574
      -668.3364       -520.7794
  -5442476.94548  -4218547.86947  24598590.9104   24598597.5744   24598591.1064
      4804.5164       3743.7734
   1154508.67944    896499.47943  22571710.7194   22571716.0354   22571710.0374
     -1223.5614       -953.4304
  -1012060.17648   -782407.28447  22189616.4684   22189619.7234   22189615.9064
       521.6244        406.4794
  -2306292.86048  -1618813.11847  20312790.6644   20312794.9644   20312790.3124
      1670.2544       1301.5004
 97  6 10  3  1 57.0000000  0  7G21G17G23G25G 3G31G 1
   -908410.17548   -703267.29747  20962267.8544   20962270.9684   20962267.3014
       650.2284        506.6824
   2271198.54244   1760360.14143  25139748.1374   25139755.7394   25139750.5424
     -2063.3974      -1607.8414
    711192.15344    551809.94543  23374404.2604   23374405.0934   23374402.3724
      -669.0624       -521.3394
  -5447280.81948  -4222291.14947  24597676.7404   24597683.1824   24597677.5294
      4803.9594       3743.3444
   1155733.01244    897453.50543  22571943.5834   22571948.6264   22571943.8214
     -1224.5094       -954.1624
  -1012580.91648   -782813.05347  22189517.4024   22189521.1864   22189516.5264
       520.4184        405.5354
  -2307962.19648  -1620113.89647  20312473.0214   20312477.0134   20312472.6614
      1669.0614       1300.5744
 97  6 10  3  1 58.0000000  0  7G21G17G23G25G 3G31G 1
   -909060.47248   -703774.02347  20962144.1864   20962146.9984   20962143.4854
       650.2914        506.7214
   2273261.76744   1761967.84443  25140140.7404   25140148.6494   25140142.9084
     -2063.2174      -1607.6984
    711861.03744    552331.15143  23374531.3434   23374532.3804   23374529.4374
      -668.8044       -521.1364
  -5452084.90048  -4226034.59047  24596762.5464   24596768.6674   24596763.4524
      4804.2334       3743.5644
   1156957.54844    898407.68943  22572176.5394   22572181.5574   22572177.1554
     -1224.6014       -954.2424
  -1013101.19248   -783218.46247  22189418.3764   22189421.9794   22189417.3444
       520.0504        405.2344
  -2309631.16148  -1621414.38947  20312155.4514   20312159.3814   20312155.2364
      1668.7754       1300.3474
 97  6 10  3  1 59.0000000  0  7G21G17G23G25G 3G31G 1
   -909710.68048   -704280.67947  20962020.5294   20962023.1394   20962019.7794
       650.3624        506.7814
   2275324.97744   1763575.54043  25140533.4424   25140541.1794   25140534.5774
     -2063.0424      -1607.5614
    712529.85344    552852.30343  23374658.3734   23374660.0704   23374656.8954
      -668.5884       -520.9634
  -5456889.16148  -4229778.17047  24595848.3974   24595854.6014   24595850.0494
      4804.5144       3743.7774
   1158182.30544    899362.04443  22572409.5564   22572414.4504   22572409.9784
     -1224.7234       -954.3244
  -1013620.99048   -783623.50647  22189319.4004   22189323.4494   22189319.3054
       519.7024        404.9734
  -2311299.71148  -1622714.55847  20311837.9514   20311842.1614   20311837.4984
      1668.5404       1300.1654
 97  6 10  3  2  0.0000000  0  7G21G17G23G25G 3G31G 1
   -910360.97348   -704787.40147  20961896.8024   20961899.4284   20961895.8994
       650.5164        506.9044
   2277388.06944   1765183.14443  25140925.9644   25140933.5914   25140928.0844
     -2062.7564      -1607.3394
    713198.41444    553373.25443  23374785.3244   23374787.5464   23374783.8134
      -668.2634       -520.7184
  -5461693.75648  -4233522.00747  24594934.0994   24594939.8654   24594935.6414
      4804.9734       3744.1364
   1159407.10244    900316.42443  22572642.5804   22572647.4734   22572642.1784
     -1224.6314       -954.2464
  -1014140.45748   -784028.28147  22189220.5274   22189224.9834   22189219.9674
       519.5114        404.8174
  -2312968.01348  -1624014.53347  20311520.5394   20311524.5284   20311520.0274
      1668.3774       1300.0434
 97  6 10  3  2  1.0000000  0  7G21G17G23G25G 3G31G 1
   -911011.30148   -705294.15047  20961773.0594   20961775.6924   20961772.1864
       650.7524        507.0874
   2279451.06044   1766790.66843  25141318.5154   25141325.6434   25141320.5734
     -2062.5734      -1607.2064
    713866.75744    553894.03643  23374912.3474   23374915.1324   23374911.0334
      -667.8464       -520.3954
  -5466498.61248  -4237266.05047  24594019.8224   24594025.2224   24594021.2364
      4805.3964       3744.4684
   1160632.02544    901270.91243  22572875.6324   22572880.3344   22572875.0824
     -1224.5814       -954.2244
  -1014659.52348   -784432.74447  22189121.6954   22189125.9534   22189121.1444
       519.2644        404.6224
  -2314636.02248  -1625314.28047  20311203.1454   20311207.0554   20311202.5664
      1668.2684       1299.9514
 97  6 10  3  2  2.0000000  0  7G21G17G23G25G 3G31G 1
   -911661.72248   -705800.97347  20961649.2974   20961651.9454   20961648.5234
       650.2544        506.6924
   2281513.87744   1768398.05943  25141711.2384   25141719.1114   25141712.3824
     -2062.9714      -1607.5084
    714534.84044    554414.61943  23375039.4854   23375042.7204   23375038.5714
      -668.1464       -520.6274
  -5471303.79248  -4241010.34247  24593105.4674   24593110.8444   24593107.3134
      4805.0974       3744.2244
   1161856.99644    902225.43343  22573108.6764   22573113.3444   22573108.3004
     -1225.2484       -954.7344
  -1015178.29248   -784836.98547  22189022.9414   22189027.3334   22189022.2374
       518.3674        403.9264
  -2316303.79348  -1626613.84047  20310885.8014   20310889.7004   20310885.2134
      1667.4544       1299.3114
 97  6 10  3  2  3.0000000  0  7G21G17G23G25G 3G31G 1
   -912311.97948   -706307.66747  20961525.5774   20961528.2044   20961524.7224
       650.2734        506.7074
   2283576.81844   1770005.54843  25142103.9264   25142112.9894   25142105.1624
     -2062.8514      -1607.4104
    715202.92644    554935.20343  23375166.6204   23375169.9584   23375166.0194
      -667.9714       -520.4984
  -5476109.06248  -4244754.70847  24592191.1794   24592196.3664   24592193.0474
      4805.4524       3744.5014
   1163082.27544    903180.19843  22573341.8504   22573346.3894   22573341.6424
     -1225.3044       -954.7914
  -1015696.48948   -785240.77447  22188924.3004   22188928.7374   22188923.5264
       517.9844        403.6324
  -2317971.06348  -1627913.01147  20310568.5294   20310572.5844   20310567.8794
      1667.1134       1299.0494
 97  6 10  3  2  4.0000000  0  7G21G17G23G25G 3G31G 1
   -912962.13148   -706814.27847  20961401.8574   20961404.6874   20961401.2334
       649.7794        506.3214
   2285639.78744   1771613.05943  25142496.5584   25142506.1774   25142496.7674
     -2063.2704      -1607.7484
    715870.93044    555455.72643  23375293.7054   23375296.9194   23375293.4524
      -668.2904       -520.7474
  -5480914.42948  -4248499.14947  24591276.8794   24591282.0994   24591278.7484
      4805.1164       3744.2434
   1164307.80744    904135.15343  22573575.1194   22573580.1484   22573575.8374
     -1225.9454       -955.2684
  -1016214.16048   -785644.15747  22188825.6684   22188829.5294   22188824.7384
       517.0644        402.9174
  -2319637.90448  -1629211.84847  20310251.3494   20310255.1864   20310250.6714
      1666.3184       1298.4284
 97  6 10  3  2  5.0000000  0  7G21G17G23G25G 3G31G 1
   -913612.11348   -707320.75947  20961278.1564   20961281.1824   20961277.3924
       649.5164        506.1224
   2287702.87744   1773220.66543  25142889.2554   25142898.6364   25142889.6934
     -2063.5534      -1607.9714
    716538.96644    555976.27243  23375420.7744   23375423.2674   23375420.8844
      -668.4154       -520.8394
  -5485719.86848  -4252243.64447  24590362.5394   24590368.1604   24590363.5314
      4805.0544       3744.1964
   1165533.66044    905090.36443  22573808.4294   22573812.8434   22573808.3394
     -1226.4544       -955.6664
  -1016731.27748   -786047.10847  22188727.1454   22188731.3514   22188726.8454
       516.3474        402.3614
  -2321304.23348  -1630510.28947  20309934.2364   20309938.1714   20309933.6154
      1665.6944       1297.9474
 97  6 10  3  2  6.0000000  0  7G21G17G23G25G 3G31G 1
   -914261.48148   -707826.76047  20961154.5654   20961157.3024   20961153.7684
       649.0994        505.7914
   2289766.48544   1774828.67343  25143282.0804   25143291.3074   25143281.7154
     -2063.7964      -1608.1504
    717207.44844    556497.16743  23375547.9594   23375550.8654   23375548.3544
      -668.6794       -521.0524
  -5490524.92448  -4255987.83947  24589448.2314   24589454.2424   24589448.5904
      4804.9324       3744.0984
   1166760.26344    906046.15943  22574041.8494   22574046.4764   22574041.7674
     -1226.9514       -956.0594
  -1017247.36448   -786449.24647  22188628.7794   22188633.4554   22188627.9224
       515.6324        401.7804
  -2322969.62248  -1631807.99547  20309617.2924   20309621.2394   20309616.9694
      1664.9484       1297.3664
 97  6 10  3  2  7.0000000  0  7G21G17G23G25G 3G31G 1
   -914910.19948   -708332.25447  20961031.1384   20961033.7004   20961030.3494
       648.1974        505.0914
   2291830.69544   1776437.14743  25143675.0754   25143684.4724   25143676.0804
     -2064.6024      -1608.7904
    717876.40844    557018.43243  23375675.3294   23375678.0594   23375675.7294
      -669.3964       -521.6064
  -5495329.53348  -4259731.68947  24588534.0724   24588540.0654   24588533.5294
      4804.1814       3743.5144
   1167987.66744    907002.58143  22574275.3874   22574280.2114   22574275.3944
     -1228.0014       -956.8784
  -1017762.40948   -786850.58047  22188530.5894   22188534.9524   22188530.5714
       514.3124        400.7614
  -2324634.02548  -1633104.93247  20309300.5424   20309304.5324   20309300.1474
      1663.7244       1296.4104
 97  6 10  3  2  8.0000000  0  7G21G17G23G25G 3G31G 1
   -915558.42948   -708837.36947  20960907.7714   20960910.4314   20960906.9004
       647.6994        504.7004
   2293895.33144   1778045.95543  25144067.9964   25144077.3984   25144070.5204
     -2065.1754      -1609.2204
    718545.71944    557539.96743  23375802.8524   23375805.3124   23375803.5244
      -669.7144       -521.8454
  -5500133.90548  -4263475.35147  24587619.8964   24587626.1164   24587619.2834
      4803.9124       3743.2974
   1169215.70044    907959.48943  22574509.0164   22574514.2294   22574508.9744
     -1228.6874       -957.4194
  -1018276.58248   -787251.23647  22188432.5924   22188436.9464   22188432.6104
       513.3944        400.0454
  -2326297.59448  -1634401.22047  20308983.9544   20308987.8974   20308983.5094
      1662.8894       1295.7594
 97  6 10  3  2  9.0000000  0  7G21G17G23G25G 3G31G 1
   -916206.44948   -709342.32047  20960784.4494   20960787.2354   20960783.6714
       648.0794        504.9984
   2295960.06044   1779654.84343  25144460.8864   25144470.5984   25144464.2494
     -2064.6594      -1608.8324
    719215.05044    558061.51943  23375930.4884   23375932.6154   23375930.8804
      -669.1954       -521.4494
  -5504938.32648  -4267219.05247  24586705.7574   24586711.9404   24586705.1794
      4804.6344       3743.8754
   1170444.07644    908916.66443  22574742.7414   22574748.2744   22574743.1954
     -1228.3734       -957.1714
  -1018790.16348   -787651.43347  22188334.6984   22188339.0624   22188334.8004
       513.4254        400.0654
  -2327960.63748  -1635697.09947  20308667.4964   20308671.4614   20308667.1054
      1662.9574       1295.8124
 97  6 10  3  2 10.0000000  0  7G21G17G23G25G 3G31G 1
   -916854.43148   -709847.24347  20960661.1274   20960663.8274   20960660.2014
       648.0114        504.9414
   2298024.79744   1781263.73243  25144853.5544   25144863.9854   25144856.6734
     -2064.5564      -1608.7454
    719884.27644    558582.99243  23376058.1194   23376059.5444   23376058.6494
      -669.1204       -521.3894
  -5509742.90148  -4270962.86747  24585791.5384   24585797.3574   24585791.2874
      4804.7364       3743.9374
   1171672.68244    909874.02043  22574976.4604   22574982.1944   22574977.2544
     -1228.6494       -957.3924
  -1019303.28348   -788051.26747  22188236.9314   22188241.9844   22188237.3914
       512.9094        399.6734
  -2329623.28648  -1636992.67247  20308351.1294   20308355.0494   20308350.7104
      1662.5104       1295.4614
 97  6 10  3  2 11.0000000  0  7G21G17G23G25G 3G31G 1
   -917502.48648   -710352.22247  20960537.8134   20960540.5644   20960537.1354
       647.9594        504.9074
   2300089.37944   1782872.50043  25145246.0744   25145256.9724   25145248.2874
     -2064.6764      -1608.8414
    720553.28544    559104.30343  23376185.6634   23376186.5784   23376186.0814
      -669.0184       -521.3234
  -5514547.78448  -4274706.92647  24584877.3004   24584883.5034   24584876.9654
      4804.8674       3744.0484
   1172901.36244    910831.43243  22575210.2214   22575216.0684   22575210.5484
     -1228.8944       -957.5824
  -1019816.08648   -788450.85647  22188139.3184   22188145.5604   22188139.8024
       512.4324        399.3074
  -2331285.66648  -1638288.03347  20308034.7954   20308038.7054   20308034.3254
      1662.1134       1295.1564
 97  6 10  3  2 12.0000000  0  7G21G17G23G25G 3G31G 1
   -918150.63348   -710857.26947  20960414.4864   20960417.1324   20960413.6304
       647.7234        504.7174
   2302153.81144   1784481.15343  25145638.5744   25145649.3564   25145639.7274
     -2064.8424      -1608.9704
    721222.04744    559625.41543  23376313.0614   23376314.0804   23376313.3244
      -669.1124       -521.3814
  -5519352.97348  -4278451.22747  24583962.9474   24583969.1814   24583962.9844
      4804.8904       3744.0664
   1174130.10044    911788.89543  22575444.0074   22575450.1864   22575444.3024
     -1229.2084       -957.8444
  -1020328.57448   -788850.18747  22188041.7954   22188047.4584   22188042.1294
       511.8624        398.8494
  -2332947.78748  -1639583.18847  20307718.5254   20307722.4874   20307718.0734
      1661.5474       1294.7034
 97  6 10  3  2 13.0000000  0  7G21G17G23G25G 3G31G 1
   -918798.77148   -711362.31347  20960291.1504   20960293.7744   20960290.4044
       648.0224        504.9514
   2304218.17244   1786089.74643  25146031.1974   25146041.9024   25146032.8954
     -2064.3774      -1608.6084
    721890.68044    560146.43143  23376440.2824   23376441.3504   23376440.3004
      -668.6524       -521.0284
  -5524158.36648  -4282195.67647  24583048.5734   24583055.1654   24583048.6664
      4805.3884       3744.4494
   1175359.03844    912746.50743  22575677.8484   22575683.5834   22575678.1794
     -1229.1164       -957.7554
  -1020840.62648   -789249.18947  22187944.3984   22187950.0494   22187944.5064
       511.7294        398.7614
  -2334609.53048  -1640878.05347  20307402.3414   20307406.1634   20307401.8564
      1661.4704       1294.6534
 97  6 10  3  2 14.0000000  0  7G21G17G23G25G 3G31G 1
   -919446.50048   -711867.03847  20960167.8694   20960170.5204   20960167.0744
       647.8094        504.7874
   2306282.91844   1787698.63543  25146423.8474   25146435.3604   25146425.1004
     -2064.5634      -1608.7544
    722559.57344    560667.64743  23376567.5074   23376568.4404   23376567.3074
      -668.7584       -521.1054
  -5528963.60948  -4285940.01847  24582134.1674   24582140.2554   24582134.0114
      4805.3934       3744.4584
   1176588.52244    913704.54143  22575911.8744   22575916.8774   22575912.3354
     -1229.5224       -958.0694
  -1021351.89148   -789647.58447  22187847.2274   22187851.7974   22187847.9774
       511.0874        398.2494
  -2336270.52648  -1642172.33547  20307086.3084   20307090.0754   20307085.6564
      1660.9114       1294.2134
 97  6 10  3  2 15.0000000  0  7G21G17G23G25G 3G31G 1
   -920094.19248   -712371.73847  20960044.6024   20960047.1894   20960043.8774
       647.5274        504.5694
   2308347.58244   1789307.47043  25146816.5724   25146828.4924   25146818.8724
     -2064.7584      -1608.9114
    723228.33944    561188.76143  23376694.7554   23376695.7864   23376694.4374
      -668.8614       -521.1844
  -5533769.03048  -4289684.49747  24581219.7234   24581225.6894   24581219.3684
      4805.3984       3744.4564
   1177818.19744    914662.72643  22576145.8904   22576151.3374   22576146.8154
     -1229.8894       -958.3434
  -1021862.71348   -790045.63747  22187750.1634   22187754.6474   22187750.7544
       510.4254        397.7334
  -2337931.13648  -1643466.31847  20306770.3794   20306774.1944   20306769.6904
      1660.2654       1293.7124
 97  6 10  3  2 16.0000000  0  7G21G17G23G25G 3G31G 1
   -920741.52148   -712876.15147  20959921.4274   20959924.0564   20959920.7644
       647.2094        504.3194
   2310412.54844   1790916.53443  25147209.2434   25147221.3254   25147211.6434
     -2065.0914      -1609.1524
    723897.30944    561710.03643  23376822.1214   23376822.9024   23376822.0004
      -669.0094       -521.3044
  -5538574.32948  -4293428.88047  24580305.3624   24580310.5204   24580305.2414
      4805.2874       3744.3824
   1179048.39144    915621.31843  22576380.0184   22576385.0534   22576379.9854
     -1230.3644       -958.7194
  -1022372.76348   -790443.07547  22187653.2044   22187657.8244   22187653.4414
       509.6884        397.1584
  -2339591.05448  -1644759.75947  20306454.5324   20306458.3874   20306453.8954
      1659.6294       1293.2204
 97  6 10  3  2 17.0000000  0  7G21G17G23G25G 3G31G 1
   -921388.36348   -713380.18247  20959798.3454   20959801.0004   20959797.6524
       646.8244        504.0234
   2312477.93444   1792525.92343  25147602.0914   25147615.3274   25147603.9644
     -2065.4074      -1609.4044
    724566.62044    562231.57843  23376949.5474   23376949.8154   23376949.2734
      -669.2354       -521.4804
  -5543379.38648  -4297173.07747  24579391.0324   24579396.0064   24579391.0574
      4805.1394       3744.2544
   1180279.20744    916580.40043  22576614.2904   22576618.9284   22576614.3434
     -1230.9374       -959.1684
  -1022881.93448   -790839.83147  22187556.3584   22187561.2384   22187556.4204
       508.9304        396.5584
  -2341250.13448  -1646052.54847  20306138.8134   20306142.6704   20306138.0904
      1658.9014       1292.6524
 97  6 10  3  2 18.0000000  0  7G21G17G23G25G 3G31G 1
   -922034.25048   -713883.46947  20959675.4114   20959678.1644   20959674.7794
       645.6744        503.1254
   2314544.16644   1794135.97543  25147995.2964   25148007.7574   25147997.0554
     -2066.4094      -1610.1904
    725236.71644    562753.72843  23377077.1144   23377077.4904   23377076.8094
      -670.2144       -522.2434
  -5548183.72548  -4300916.71347  24578476.8174   24578482.6304   24578476.9794
      4804.2734       3743.5854
   1181511.12044    917540.33743  22576848.7344   22576853.5484   22576849.0434
     -1232.1764       -960.1364
  -1023389.76648   -791235.54047  22187459.8504   22187464.1084   22187459.8584
       507.3574        395.3414
  -2342907.93048  -1647344.33747  20305823.3204   20305827.1324   20305822.6544
      1657.4124       1291.4914
 97  6 10  3  2 19.0000000  0  7G21G17G23G25G 3G31G 1
   -922679.83048   -714386.51847  20959552.5174   20959555.3254   20959551.7324
       645.1534        502.7164
   2316610.70044   1795746.26443  25148388.5974   25148401.0024   25148390.3984
     -2066.8284      -1610.5094
    725906.96644    563276.00143  23377204.7144   23377205.1914   23377204.2614
      -670.5674       -522.5204
  -5552987.95348  -4304660.26847  24577562.6074   24577568.7094   24577563.1024
      4803.9454       3743.3364
   1182743.50444    918500.63143  22577083.2544   22577088.3614   22577083.7654
     -1232.8814       -960.6804
  -1023896.89148   -791630.70747  22187363.4094   22187368.7504   22187363.3254
       506.4794        394.6584
  -2344565.07448  -1648635.61747  20305507.9374   20305511.6874   20305507.1834
      1656.5664       1290.8274
 97  6 10  3  2 20.0000000  0  7G21G17G23G25G 3G31G 1
   -923325.38148   -714889.54847  20959429.6184   20959432.5404   20959429.0204
       645.8444        503.2624
   2318677.13144   1797356.47043  25148781.5464   25148794.6764   25148784.2634
     -2066.0784      -1609.9174
    726577.09144    563798.17243  23377332.3224   23377332.8574   23377332.0674
      -669.7324       -521.8694
  -5557792.39748  -4308403.98547  24576648.3354   24576654.6344   24576648.5684
      4804.8174       3744.0184
   1183976.05144    919461.05543  22577317.7474   22577322.7894   22577318.2414
     -1232.3694       -960.2744
  -1024403.61948   -792025.56747  22187266.9954   22187272.2254   22187267.6154
       506.8074        394.9294
  -2346221.85648  -1649926.61747  20305192.5834   20305196.3294   20305192.1144
      1656.9094       1291.0974
 97  6 10  3  2 21.0000000  0  7G21G17G23G25G 3G31G 1
   -923970.98248   -715392.61347  20959306.7184   20959309.5244   20959306.0214
       645.6454        503.1014
   2320743.46844   1798966.60243  25149174.2494   25149187.3174   25149177.4274
     -2066.1824      -1610.0074
    727247.00944    564320.18343  23377459.9474   23377460.2954   23377459.5494
      -669.8084       -521.9354
  -5562597.11248  -4312147.91447  24575734.0414   24575739.9764   24575734.2034
      4804.8774       3744.0614
   1185208.70144    920421.55743  22577552.3164   22577557.1554   22577552.4074
     -1232.6684       -960.5074
  -1024909.98448   -792420.13747  22187170.5874   22187174.6384   22187170.8784
       506.1434        394.4124
  -2347878.34748  -1651217.39047  20304877.3244   20304881.2274   20304876.7964
      1656.3454       1290.6584
 97  6 10  3  2 22.0000000  0  7G21G17G23G25G 3G31G 1
   -924616.92948   -715895.95047  20959183.7724   20959186.6354   20959183.1794
       646.3334        503.6384
   2322809.40344   1800576.42543  25149567.2554   25149579.7174   25149570.8424
     -2065.5414      -1609.5104
    727916.41544    564841.80043  23377587.3594   23377588.0824   23377586.4054
      -668.9404       -521.2564
  -5567402.37748  -4315892.27547  24574819.6414   24574825.1774   24574820.0404
      4805.7914       3744.7694
   1186441.16944    921381.92643  22577786.8804   22577791.9884   22577787.2684
     -1232.1394       -960.1044
  -1025416.30648   -792814.67247  22187074.1854   22187078.4924   22187074.8854
       506.4904        394.6614
  -2349534.86648  -1652508.18447  20304562.0564   20304566.1304   20304561.6314
      1656.7374       1290.9634
 97  6 10  3  2 23.0000000  0  7G21G17G23G25G 3G31G 1
   -925262.84548   -716399.25947  20959060.8584   20959063.7854   20959060.4734
       645.6614        503.1144
   2324875.26244   1802186.18843  25149960.3264   25149972.5714   25149963.1104
     -2066.0734      -1609.9294
    728585.71644    565363.33543  23377714.8014   23377715.3884   23377713.6114
      -669.4664       -521.6574
  -5572207.85048  -4319636.79447  24573905.2134   24573910.3534   24573905.1964
      4805.2454       3744.3364
   1187673.81344    922342.43243  22578021.4834   22578026.3594   22578021.4594
     -1233.0054       -960.7794
  -1025922.21248   -793208.88347  22186977.8104   22186982.6134   22186977.3544
       505.4114        393.8364
  -2351191.01348  -1653798.68847  20304246.8584   20304250.7964   20304246.3274
      1655.7294       1290.1814
 97  6 10  3  2 24.0000000  0  7G21G17G23G25G 3G31G 1
   -925908.67148   -716902.50347  20958937.9564   20958940.9104   20958937.5184
       645.4304        502.9334
   2326941.16944   1803795.98343  25150353.4444   25150365.7524   25150356.3754
     -2066.2254      -1610.0424
    729254.93644    565884.80743  23377842.2024   23377843.1014   23377841.2084
      -669.5424       -521.7254
  -5577013.45848  -4323381.42147  24572990.6984   24572995.8344   24572990.7664
      4805.3934       3744.4534
   1188906.69544    923303.12043  22578256.1574   22578261.3714   22578256.4224
     -1233.3204       -961.0134
  -1026427.64148   -793602.72647  22186881.6364   22186886.4494   22186881.3264
       504.8154        393.3604
  -2352846.74048  -1655088.86447  20303931.7554   20303935.7704   20303931.2234
      1655.1804       1289.7474
 97  6 10  3  2 25.0000000  0  7G21G17G23G25G 3G31G 1
   -926554.07048   -717405.40947  20958815.1604   20958818.1204   20958814.5484
       645.1174        502.6834
   2329007.41244   1805406.04043  25150746.5394   25150759.3204   25150749.3934
     -2066.5154      -1610.2674
    729924.43444    566406.49543  23377969.6634   23377971.0504   23377968.4914
      -669.6774       -521.8224
  -5581818.80348  -4327125.83947  24572076.2754   24572080.5894   24572076.9494
      4805.2324       3744.3274
   1190140.20144    924264.29043  22578490.9444   22578496.1514   22578491.2664
     -1233.8404       -961.4454
  -1026932.23048   -793995.90847  22186785.5854   22186790.1684   22186786.0664
       504.0834        392.7834
  -2354501.68448  -1656378.42747  20303616.8194   20303620.9634   20303616.4574
      1654.5034       1289.2124
 97  6 10  3  2 26.0000000  0  7G21G17G23G25G 3G31G 1
   -927199.40048   -717908.26647  20958692.3784   20958695.2264   20958691.7474
       645.3274        502.8514
   2331073.69844   1807016.12843  25151139.6174   25151152.2204   25151140.4794
     -2066.2414      -1610.0474
    730593.83244    566928.09943  23378097.0814   23378098.6614   23378095.9504
      -669.3014       -521.5374
  -5586624.34148  -4330870.40747  24571161.8574   24571166.0294   24571162.5214
      4805.5704       3744.5984
   1191373.90744    925225.62443  22578725.7904   22578730.3744   22578725.5494
     -1233.8274       -961.4274
  -1027436.36248   -794388.74247  22186689.7294   22186694.1664   22186689.7864
       503.8624        392.6214
  -2356156.23848  -1657667.69347  20303301.9994   20303306.0684   20303301.5554
      1654.3824       1289.1324
 97  6 10  3  2 27.0000000  0  7G21G17G23G25G 3G31G 1
   -927844.43748   -718410.89347  20958569.5984   20958572.3114   20958568.8714
       644.8654        502.4914
   2333140.15044   1808626.34743  25151532.4804   25151546.2884   25151533.3804
     -2066.5894      -1610.3214
    731263.37444    567449.82043  23378224.4224   23378225.8034   23378223.6734
      -669.6524       -521.8024
  -5591429.81948  -4334614.93647  24570247.3784   24570251.5574   24570247.4404
      4805.4544       3744.5124
   1192608.06144    926187.30243  22578960.6904   22578965.8834   22578960.4864
     -1234.3694       -961.8544
  -1027939.80648   -794781.04047  22186593.9844   22186598.0384   22186593.9414
       503.0534        391.9944
  -2357810.15248  -1658956.45547  20302987.3144   20302991.3214   20302986.6254
      1653.5914       1288.5124
 97  6 10  3  2 28.0000000  0  7G21G17G23G25G 3G31G 1
   -928488.94848   -718913.11047  20958446.9284   20958449.9174   20958446.3924
       644.3324        502.0784
   2335207.06044   1810236.92943  25151925.6424   25151939.5334   25151927.5044
     -2066.9884      -1610.6434
    731933.29144    567971.83243  23378351.8664   23378353.4244   23378351.0134
      -670.0194       -522.0854
  -5596234.95048  -4338359.19147  24569332.9714   24569337.0274   24569332.6104
      4805.0944       3744.2204
   1193842.93944    927149.54443  22579195.7014   22579200.7494   22579195.4364
     -1235.1404       -962.4474
  -1028442.30148   -795172.59647  22186498.4544   22186502.5814   22186498.6254
       502.0904        391.2534
  -2359463.18548  -1660244.53347  20302672.7854   20302676.8244   20302672.1884
      1652.6704       1287.7984
 97  6 10  3  2 29.0000000  0  7G21G17G23G25G 3G31G 1
   -929132.80448   -719414.81747  20958324.4084   20958327.4684   20958323.8804
       643.3624        501.3214
   2337274.56944   1811847.97643  25152318.8044   25152332.7034   25152321.9174
     -2067.9234      -1611.3684
    732603.71844    568494.24343  23378479.4564   23378480.9414   23378478.2114
      -670.8574       -522.7504
  -5601039.66648  -4342103.12647  24568418.6984   24568423.3204   24568418.5364
      4804.3054       3743.6174
   1195078.61244    928112.40643  22579430.9334   22579435.1494   22579430.2834
     -1236.2894       -963.3484
  -1028943.74948   -795563.33547  22186403.1264   22186407.7934   22186402.7204
       500.6834        390.1404
  -2361115.22348  -1661531.83447  20302358.4314   20302362.3564   20302357.8154
      1651.3794       1286.7914
 97  6 10  3  2 30.0000000  0  7G21G17G23G25G 3G31G 1
   -929776.38248   -719916.30647  20958201.9354   20958205.1034   20958201.3734
       643.5684        501.4814
   2339342.31244   1813459.20143  25152712.2414   25152726.5974   25152715.3974
     -2067.5814      -1611.1004
    733274.27544    569016.75243  23378607.0364   23378608.2744   23378605.8764
      -670.4754       -522.4444
  -5605844.32648  -4345847.01747  24567504.3694   24567508.8824   24567504.1524
      4804.8694       3744.0504
   1196314.72544    929075.61043  22579666.2874   22579670.5394   22579666.2864
     -1236.1754       -963.2484
  -1029444.53648   -795953.56047  22186307.9694   22186312.3914   22186307.9664
       500.6024        390.0754
  -2362766.64648  -1662818.65747  20302044.1804   20302048.1084   20302043.5544
      1651.3024       1286.7324
 97  6 10  3  2 31.0000000  0  7G21G17G23G25G 3G31G 1
   -930420.03548   -720417.85647  20958079.4474   20958082.5774   20958078.9514
       643.8864        501.7344
   2341409.94044   1815070.33643  25153105.7314   25153120.1744   25153108.5894
     -2067.3024      -1610.8784
    733944.63044    569539.10743  23378734.5814   23378735.5054   23378733.3784
      -670.0234       -522.0914
  -5610649.25548  -4349591.11847  24566590.0854   24566594.9524   24566590.3064
      4805.3084       3744.4114
   1197550.96444    930038.91143  22579901.6354   22579905.7364   22579901.4074
     -1236.0574       -963.1534
  -1029944.99448   -796343.52647  22186212.8354   22186217.2404   22186212.7624
       500.4774        389.9884
  -2364417.77448  -1664105.25347  20301729.9794   20301733.9784   20301729.4114
      1651.2254       1286.6754
 97  6 10  3  2 32.0000000  0  7G21G17G23G25G 3G31G 1
   -931063.64748   -720919.37347  20957956.9434   20957960.2804   20957956.4274
       643.8264        501.6884
   2343477.49244   1816681.41443  25153499.2524   25153513.1044   25153501.6704
     -2067.3404      -1610.9174
    734614.89644    570061.38843  23378862.1414   23378862.9414   23378861.6384
      -669.9884       -522.0564
  -5615454.38248  -4353335.36947  24565675.7274   24565680.7794   24565675.9734
      4805.4174       3744.4724
   1198787.39544    931002.36243  22580137.0674   22580141.8324   22580136.5194
     -1236.3704       -963.4084
  -1030445.01348   -796733.15347  22186117.7454   22186122.6024   22186117.4034
       499.9724        389.6014
  -2366068.51548  -1665391.54747  20301415.8174   20301419.8064   20301415.2504
      1650.7884       1286.3324
 97  6 10  3  2 33.0000000  0  7G21G17G23G25G 3G31G 1
   -931707.60648   -721421.16047  20957834.3554   20957837.5654   20957833.8544
       644.2134        501.9834
   2345544.66244   1818292.19343  25153892.5934   25153905.5984   25153895.0934
     -2066.8834      -1610.5534
    735284.66344    570583.28043  23378989.5434   23378990.4964   23378988.8144
      -669.4504       -521.6424
  -5620260.08948  -4357080.07547  24564761.2524   24564766.6964   24564761.6544
      4806.0914       3745.0054
   1200023.62444    931965.65443  22580372.4804   22580376.9644   22580371.7244
     -1236.0484       -963.1404
  -1030944.98648   -797122.74447  22186022.6234   22186026.5984   22186022.6414
       499.9894        389.6234
  -2367719.27348  -1666677.85247  20301101.6604   20301105.6034   20301101.1734
      1650.8384       1286.3684
 97  6 10  3  2 34.0000000  0  7G21G17G23G25G 3G31G 1
   -932351.58848   -721922.96647  20957711.7994   20957715.0534   20957711.3004
       643.7964        501.6604
   2347611.77544   1819902.92743  25154285.8554   25154298.9584   25154287.4934
     -2067.3034      -1610.8814
    735954.28544    571105.06143  23379116.8894   23379118.0004   23379115.8114
      -669.7384       -521.8784
  -5625066.00048  -4360824.94047  24563846.7674   24563851.9744   24563847.7144
      4805.8374       3744.8014
   1201260.04544    932929.09943  22580607.8984   22580612.2904   22580607.2374
     -1236.6474       -963.6184
  -1031444.58448   -797512.04547  22185927.6024   22185932.0544   22185927.8584
       499.1914        388.9744
  -2369369.67448  -1667963.87947  20300787.5574   20300791.6894   20300787.1024
      1650.0534       1285.7564
 97  6 10  3  2 35.0000000  0  7G21G17G23G25G 3G31G 1
   -932995.46048   -722424.68347  20957589.2984   20957592.7574   20957588.8364
       643.6944        501.5784
   2349678.90244   1821513.68243  25154679.0404   25154691.4724   25154680.4174
     -2067.2744      -1610.8724
    736623.85344    571626.80143  23379244.2634   23379245.1394   23379242.5834
      -669.6684       -521.8254
  -5629872.07048  -4364569.92747  24562932.3024   24562937.5194   24562933.0714
      4805.9754       3744.9194
   1202496.72544    933892.74643  22580843.2784   22580847.3814   22580842.3914
     -1236.9774       -963.8884
  -1031943.67748   -797900.95047  22185832.6724   22185837.0234   22185832.5984
       498.6544        388.5664
  -2371019.64548  -1669249.57147  20300473.5584   20300477.6104   20300473.1564
      1649.6384       1285.4374
 97  6 10  3  2 36.0000000  0  7G21G17G23G25G 3G31G 1
   -933639.02348   -722926.16047  20957466.8744   20957470.2004   20957466.4204
       643.0804        501.0964
   2351746.26844   1823124.61443  25155072.0284   25155085.8074   25155074.2564
     -2067.9454      -1611.3824
    737293.59144    572148.67543  23379371.5904   23379372.2814   23379369.9194
      -670.1394       -522.1944
  -5634678.06448  -4368314.85947  24562017.7704   24562023.1214   24562018.6124
      4805.6724       3744.6734
   1203733.88344    934856.75743  22581078.7664   22581082.1774   22581078.2684
     -1237.6944       -964.4314
  -1032442.07548   -798289.30847  22185737.8594   22185742.1074   22185737.1654
       497.6994        387.8334
  -2372668.95348  -1670534.74647  20300159.6604   20300163.7364   20300159.1654
      1648.6444       1284.6564
